Wetterdaten: Dienstag, 14.03.2023
Datum Zeit Temp. Aussen Temp. o. S. Temp +5cm Feuchte Auss Luftdruck Regen Sonnenschein Regendauer Solar Windben Empfang
14.03.2023 00:00 11,2 C 10,6 C 6,7 C 86 % 991,9 hPa 0,0 l/m 0 min 0 min 0 W/m 19,3 km/h (3 Bft) 97,83 %
14.03.2023 00:02 11,2 C 10,6 C 6,7 C 86 % 991,8 hPa 0,0 l/m 0 min 0 min 0 W/m 25,7 km/h (4 Bft) 95,45 %
14.03.2023 00:04 11,2 C 10,6 C 6,7 C 86 % 991,7 hPa 0,0 l/m 0 min 0 min 0 W/m 16,1 km/h (3 Bft) 97,87 %
14.03.2023 00:08 11,2 C 10,0 C 6,7 C 86 % 991,6 hPa 0,0 l/m 0 min 0 min 0 W/m 22,5 km/h (4 Bft) 96,84 %
14.03.2023 00:10 11,2 C 10,0 C 6,7 C 86 % 991,5 hPa 0,0 l/m 0 min 0 min 0 W/m 12,9 km/h (3 Bft) 97,87 %
14.03.2023 00:12 11,2 C 10,0 C 6,7 C 86 % 991,5 hPa 0,0 l/m 0 min 0 min 0 W/m 16,1 km/h (3 Bft) 100,00 %
14.03.2023 00:14 11,1 C 10,0 C 6,7 C 86 % 991,5 hPa 0,0 l/m 0 min 0 min 0 W/m 25,7 km/h (4 Bft) 97,83 %
14.03.2023 00:16 11,1 C 10,0 C 6,7 C 86 % 991,5 hPa 0,0 l/m 0 min 0 min 0 W/m 22,5 km/h (4 Bft) 100,00 %
14.03.2023 00:18 11,1 C 10,0 C 6,7 C 86 % 991,5 hPa 0,0 l/m 0 min 0 min 0 W/m 22,5 km/h (4 Bft) 100,00 %
14.03.2023 00:20 11,1 C 10,0 C 6,7 C 86 % 991,6 hPa 0,0 l/m 0 min 0 min 0 W/m 16,1 km/h (3 Bft) 100,00 %
14.03.2023 00:22 11,1 C 10,0 C 6,7 C 86 % 991,6 hPa 0,0 l/m 0 min 0 min 0 W/m 19,3 km/h (3 Bft) 100,00 %
14.03.2023 00:24 11,1 C 10,0 C 6,7 C 86 % 991,6 hPa 0,0 l/m 0 min 0 min 0 W/m 19,3 km/h (3 Bft) 100,00 %
14.03.2023 00:27 11,1 C 10,0 C 6,7 C 86 % 991,7 hPa 0,0 l/m 0 min 0 min 0 W/m 32,2 km/h (5 Bft) 100,00 %
14.03.2023 00:28 11,1 C 10,0 C 6,7 C 86 % 991,7 hPa 0,0 l/m 0 min 0 min 0 W/m 22,5 km/h (4 Bft) 100,00 %
14.03.2023 00:34 11,1 C 10,6 C 6,7 C 86 % 991,8 hPa 0,0 l/m 0 min 0 min 0 W/m 32,2 km/h (5 Bft) 98,94 %
14.03.2023 00:36 11,1 C 10,6 C 6,7 C 86 % 991,8 hPa 0,0 l/m 0 min 0 min 0 W/m 25,7 km/h (4 Bft) 100,00 %
14.03.2023 00:38 11,2 C 10,6 C 6,7 C 86 % 991,7 hPa 0,0 l/m 0 min 0 min 0 W/m 32,2 km/h (5 Bft) 100,00 %
14.03.2023 00:40 11,2 C 10,6 C 6,7 C 86 % 991,7 hPa 0,0 l/m 0 min 0 min 0 W/m 19,3 km/h (3 Bft) 100,00 %
14.03.2023 00:42 11,2 C 10,6 C 7,2 C 86 % 991,7 hPa 0,0 l/m 0 min 0 min 0 W/m 22,5 km/h (4 Bft) 100,00 %
14.03.2023 00:44 11,2 C 10,6 C 7,2 C 86 % 991,6 hPa 0,0 l/m 0 min 0 min 0 W/m 29,0 km/h (5 Bft) 96,15 %
14.03.2023 00:46 11,3 C 10,6 C 7,2 C 86 % 991,6 hPa 0,0 l/m 0 min 0 min 0 W/m 32,2 km/h (5 Bft) 97,83 %
14.03.2023 00:48 11,3 C 10,6 C 7,2 C 86 % 991,7 hPa 0,0 l/m 0 min 0 min 0 W/m 32,2 km/h (5 Bft) 100,00 %
14.03.2023 00:50 11,4 C 11,1 C 7,2 C 85 % 991,6 hPa 0,0 l/m 0 min 0 min 0 W/m 38,6 km/h (5 Bft) 100,00 %
14.03.2023 00:52 11,4 C 11,1 C 7,2 C 85 % 991,5 hPa 0,0 l/m 0 min 0 min 0 W/m 25,7 km/h (4 Bft) 100,00 %
14.03.2023 00:54 11,5 C 11,1 C 7,2 C 85 % 991,4 hPa 0,0 l/m 0 min 0 min 0 W/m 25,7 km/h (4 Bft) 97,92 %
14.03.2023 00:56 11,6 C 11,1 C 7,2 C 85 % 991,3 hPa 0,0 l/m 0 min 0 min 0 W/m 22,5 km/h (4 Bft) 97,87 %
14.03.2023 00:58 11,6 C 11,1 C 7,2 C 84 % 991,4 hPa 0,0 l/m 0 min 0 min 0 W/m 12,9 km/h (3 Bft) 97,83 %
14.03.2023 01:00 11,6 C 11,1 C 7,2 C 84 % 991,4 hPa 0,0 l/m 0 min 0 min 0 W/m 22,5 km/h (4 Bft) 95,74 %
14.03.2023 01:02 11,6 C 11,1 C 7,2 C 84 % 991,4 hPa 0,0 l/m 0 min 0 min 0 W/m 22,5 km/h (4 Bft) 95,74 %
14.03.2023 01:04 11,6 C 11,1 C 7,2 C 84 % 991,3 hPa 0,0 l/m 0 min 0 min 0 W/m 25,7 km/h (4 Bft) 95,74 %
14.03.2023 01:06 11,7 C 11,1 C 7,2 C 84 % 991,2 hPa 0,0 l/m 0 min 0 min 0 W/m 22,5 km/h (4 Bft) 93,62 %
14.03.2023 01:08 11,7 C 11,1 C 7,2 C 84 % 991,2 hPa 0,0 l/m 0 min 0 min 0 W/m 22,5 km/h (4 Bft) 95,74 %
14.03.2023 01:10 11,7 C 11,1 C 7,2 C 84 % 991,3 hPa 0,0 l/m 0 min 0 min 0 W/m 38,6 km/h (5 Bft) 95,74 %
14.03.2023 01:12 11,8 C 11,1 C 7,2 C 84 % 991,2 hPa 0,0 l/m 0 min 0 min 0 W/m 25,7 km/h (4 Bft) 93,48 %
14.03.2023 01:14 11,8 C 11,1 C 7,2 C 84 % 991,4 hPa 0,0 l/m 0 min 2 min 0 W/m 32,2 km/h (5 Bft) 95,74 %
14.03.2023 01:16 11,8 C 11,1 C 6,7 C 84 % 991,4 hPa 0,0 l/m 0 min 2 min 0 W/m 19,3 km/h (3 Bft) 95,74 %
14.03.2023 01:18 11,7 C 10,0 C 6,1 C 85 % 991,5 hPa 0,2 l/m 0 min 2 min 0 W/m 61,2 km/h (7 Bft) 95,74 %
14.03.2023 01:20 11,6 C 9,4 C 5,6 C 86 % 991,5 hPa 0,0 l/m 0 min 2 min 0 W/m 38,6 km/h (5 Bft) 94,29 %
14.03.2023 01:22 11,4 C 8,9 C 5,6 C 87 % 991,5 hPa 0,2 l/m 0 min 2 min 0 W/m 29,0 km/h (5 Bft) 95,74 %
14.03.2023 01:24 11,2 C 8,9 C 5,6 C 87 % 991,5 hPa 0,2 l/m 0 min 2 min 0 W/m 35,4 km/h (5 Bft) 93,62 %
14.03.2023 01:26 11,1 C 8,3 C 5,0 C 88 % 991,6 hPa 0,2 l/m 0 min 2 min 0 W/m 38,6 km/h (5 Bft) 95,74 %
14.03.2023 01:28 10,8 C 8,3 C 5,0 C 88 % 991,8 hPa 0,2 l/m 0 min 2 min 0 W/m 51,5 km/h (7 Bft) 93,62 %
14.03.2023 01:30 10,6 C 8,3 C 5,0 C 89 % 991,7 hPa 0,2 l/m 0 min 2 min 0 W/m 35,4 km/h (5 Bft) 94,64 %
14.03.2023 01:32 10,5 C 8,3 C 5,0 C 89 % 991,7 hPa 0,0 l/m 0 min 2 min 0 W/m 35,4 km/h (5 Bft) 95,74 %
14.03.2023 01:34 10,3 C 8,3 C 5,0 C 89 % 991,7 hPa 0,2 l/m 0 min 2 min 0 W/m 38,6 km/h (5 Bft) 91,49 %
14.03.2023 01:36 10,3 C 8,3 C 5,0 C 90 % 991,7 hPa 0,0 l/m 0 min 2 min 0 W/m 32,2 km/h (5 Bft) 93,48 %
14.03.2023 01:38 10,2 C 8,3 C 5,0 C 90 % 991,7 hPa 0,0 l/m 0 min 2 min 0 W/m 29,0 km/h (5 Bft) 91,49 %
14.03.2023 01:40 10,2 C 8,3 C 5,0 C 90 % 991,8 hPa 0,0 l/m 0 min 2 min 0 W/m 32,2 km/h (5 Bft) 95,74 %
14.03.2023 01:42 10,1 C 8,3 C 5,0 C 90 % 991,8 hPa 0,0 l/m 0 min 2 min 0 W/m 35,4 km/h (5 Bft) 93,62 %
14.03.2023 01:44 10,1 C 8,3 C 5,0 C 90 % 992,0 hPa 0,0 l/m 0 min 2 min 0 W/m 32,2 km/h (5 Bft) 95,74 %
14.03.2023 01:46 10,1 C 8,3 C 5,0 C 91 % 991,7 hPa 0,2 l/m 0 min 2 min 0 W/m 19,3 km/h (3 Bft) 95,74 %
14.03.2023 01:48 10,1 C 8,3 C 5,0 C 91 % 991,7 hPa 0,0 l/m 0 min 2 min 0 W/m 35,4 km/h (5 Bft) 93,62 %
14.03.2023 01:50 10,0 C 8,3 C 5,0 C 91 % 991,6 hPa 0,0 l/m 0 min 2 min 0 W/m 38,6 km/h (5 Bft) 95,65 %
14.03.2023 01:52 10,0 C 8,3 C 5,0 C 91 % 991,6 hPa 0,0 l/m 0 min 2 min 0 W/m 41,8 km/h (6 Bft) 97,87 %
14.03.2023 01:54 9,9 C 8,3 C 5,0 C 91 % 991,5 hPa 0,0 l/m 0 min 0 min 0 W/m 25,7 km/h (4 Bft) 95,74 %
14.03.2023 01:56 9,9 C 8,3 C 5,0 C 92 % 991,6 hPa 0,0 l/m 0 min 0 min 0 W/m 25,7 km/h (4 Bft) 95,74 %
14.03.2023 01:58 9,9 C 8,3 C 5,0 C 92 % 991,5 hPa 0,0 l/m 0 min 0 min 0 W/m 25,7 km/h (4 Bft) 97,87 %
14.03.2023 02:00 9,8 C 8,3 C 5,0 C 92 % 991,6 hPa 0,0 l/m 0 min 0 min 0 W/m 22,5 km/h (4 Bft) 97,96 %
14.03.2023 02:02 9,8 C 8,3 C 5,0 C 92 % 991,6 hPa 0,0 l/m 0 min 0 min 0 W/m 29,0 km/h (5 Bft) 97,87 %
14.03.2023 02:04 9,8 C 8,3 C 5,0 C 92 % 991,8 hPa 0,0 l/m 0 min 0 min 0 W/m 45,1 km/h (6 Bft) 97,83 %
14.03.2023 02:06 9,8 C 8,3 C 5,0 C 92 % 991,7 hPa 0,0 l/m 0 min 0 min 0 W/m 32,2 km/h (5 Bft) 97,87 %
14.03.2023 02:08 9,7 C 8,3 C 5,0 C 92 % 991,7 hPa 0,0 l/m 0 min 0 min 0 W/m 35,4 km/h (5 Bft) 95,74 %
14.03.2023 02:10 9,7 C 8,3 C 4,4 C 92 % 991,7 hPa 0,0 l/m 0 min 0 min 0 W/m 35,4 km/h (5 Bft) 100,00 %
14.03.2023 02:14 9,7 C 8,3 C 4,4 C 92 % 991,6 hPa 0,0 l/m 0 min 4 min 0 W/m 32,2 km/h (5 Bft) 100,00 %
14.03.2023 02:16 9,7 C 8,3 C 4,4 C 92 % 991,5 hPa 0,0 l/m 0 min 2 min 0 W/m 25,7 km/h (4 Bft) 95,74 %
14.03.2023 02:18 9,6 C 8,3 C 4,4 C 92 % 991,5 hPa 0,0 l/m 0 min 2 min 0 W/m 25,7 km/h (4 Bft) 97,87 %
14.03.2023 02:20 9,6 C 8,3 C 4,4 C 92 % 991,5 hPa 0,0 l/m 0 min 0 min 0 W/m 25,7 km/h (4 Bft) 97,83 %
14.03.2023 02:22 9,6 C 8,3 C 4,4 C 92 % 991,5 hPa 0,0 l/m 0 min 0 min 0 W/m 22,5 km/h (4 Bft) 97,87 %
14.03.2023 02:24 9,6 C 8,3 C 4,4 C 92 % 991,6 hPa 0,0 l/m 0 min 0 min 0 W/m 19,3 km/h (3 Bft) 100,00 %
14.03.2023 02:26 9,6 C 8,3 C 4,4 C 92 % 991,5 hPa 0,0 l/m 0 min 0 min 0 W/m 25,7 km/h (4 Bft) 100,00 %
14.03.2023 02:28 9,6 C 8,3 C 4,4 C 92 % 991,5 hPa 0,0 l/m 0 min 0 min 0 W/m 38,6 km/h (5 Bft) 100,00 %
14.03.2023 02:30 9,6 C 8,3 C 4,4 C 92 % 991,4 hPa 0,0 l/m 0 min 0 min 0 W/m 22,5 km/h (4 Bft) 100,00 %
14.03.2023 02:32 9,6 C 8,3 C 4,4 C 92 % 991,4 hPa 0,0 l/m 0 min 0 min 0 W/m 25,7 km/h (4 Bft) 100,00 %
14.03.2023 02:34 9,6 C 8,3 C 4,4 C 92 % 991,4 hPa 0,0 l/m 0 min 0 min 0 W/m 29,0 km/h (5 Bft) 100,00 %
14.03.2023 02:36 9,6 C 8,3 C 4,4 C 92 % 991,4 hPa 0,0 l/m 0 min 0 min 0 W/m 25,7 km/h (4 Bft) 100,00 %
14.03.2023 02:38 9,6 C 8,3 C 4,4 C 92 % 991,4 hPa 0,0 l/m 0 min 0 min 0 W/m 25,7 km/h (4 Bft) 100,00 %
14.03.2023 02:40 9,6 C 8,3 C 4,4 C 92 % 991,4 hPa 0,0 l/m 0 min 0 min 0 W/m 19,3 km/h (3 Bft) 100,00 %
14.03.2023 02:42 9,6 C 8,3 C 4,4 C 92 % 991,3 hPa 0,0 l/m 0 min 0 min 0 W/m 16,1 km/h (3 Bft) 100,00 %
14.03.2023 02:44 9,6 C 8,3 C 4,4 C 92 % 991,2 hPa 0,0 l/m 0 min 0 min 0 W/m 22,5 km/h (4 Bft) 97,83 %
14.03.2023 02:46 9,6 C 8,3 C 4,4 C 92 % 991,3 hPa 0,0 l/m 0 min 0 min 0 W/m 35,4 km/h (5 Bft) 100,00 %
14.03.2023 02:48 9,6 C 8,3 C 4,4 C 92 % 991,3 hPa 0,0 l/m 0 min 0 min 0 W/m 22,5 km/h (4 Bft) 100,00 %
14.03.2023 02:50 9,7 C 8,9 C 4,4 C 92 % 991,3 hPa 0,0 l/m 0 min 0 min 0 W/m 38,6 km/h (5 Bft) 100,00 %
14.03.2023 02:52 9,7 C 8,9 C 4,4 C 92 % 991,3 hPa 0,0 l/m 0 min 0 min 0 W/m 29,0 km/h (5 Bft) 100,00 %
14.03.2023 02:54 9,7 C 8,9 C 4,4 C 91 % 991,3 hPa 0,0 l/m 0 min 0 min 0 W/m 16,1 km/h (3 Bft) 97,30 %
14.03.2023 02:56 9,7 C 8,9 C 4,4 C 91 % 991,4 hPa 0,0 l/m 0 min 0 min 0 W/m 25,7 km/h (4 Bft) 100,00 %
14.03.2023 02:58 9,8 C 8,9 C 4,4 C 91 % 991,3 hPa 0,0 l/m 0 min 0 min 0 W/m 25,7 km/h (4 Bft) 100,00 %
14.03.2023 03:00 9,8 C 8,9 C 4,4 C 91 % 991,2 hPa 0,0 l/m 0 min 0 min 0 W/m 19,3 km/h (3 Bft) 100,00 %
14.03.2023 03:02 9,8 C 8,9 C 4,4 C 91 % 991,1 hPa 0,0 l/m 0 min 0 min 0 W/m 22,5 km/h (4 Bft) 100,00 %
14.03.2023 03:04 9,8 C 8,9 C 4,4 C 91 % 991,3 hPa 0,0 l/m 0 min 0 min 0 W/m 22,5 km/h (4 Bft) 100,00 %
14.03.2023 03:06 9,8 C 8,9 C 4,4 C 91 % 991,1 hPa 0,0 l/m 0 min 0 min 0 W/m 22,5 km/h (4 Bft) 100,00 %
14.03.2023 03:08 9,8 C 8,9 C 5,0 C 91 % 991,1 hPa 0,0 l/m 0 min 0 min 0 W/m 22,5 km/h (4 Bft) 100,00 %
14.03.2023 03:10 9,8 C 8,9 C 5,0 C 91 % 991,1 hPa 0,0 l/m 0 min 0 min 0 W/m 16,1 km/h (3 Bft) 95,74 %
14.03.2023 03:12 9,8 C 8,9 C 5,0 C 91 % 991,1 hPa 0,0 l/m 0 min 0 min 0 W/m 25,7 km/h (4 Bft) 95,92 %
14.03.2023 03:14 9,8 C 8,9 C 5,0 C 91 % 991,1 hPa 0,0 l/m 0 min 0 min 0 W/m 19,3 km/h (3 Bft) 100,00 %
14.03.2023 03:16 9,8 C 8,9 C 5,0 C 91 % 991,0 hPa 0,0 l/m 0 min 0 min 0 W/m 19,3 km/h (3 Bft) 97,87 %
14.03.2023 03:18 9,9 C 8,9 C 5,0 C 91 % 991,1 hPa 0,0 l/m 0 min 0 min 0 W/m 19,3 km/h (3 Bft) 100,00 %
14.03.2023 03:20 9,9 C 8,9 C 5,0 C 91 % 991,0 hPa 0,0 l/m 0 min 0 min 0 W/m 19,3 km/h (3 Bft) 95,74 %
14.03.2023 03:22 9,9 C 8,9 C 5,0 C 91 % 991,1 hPa 0,0 l/m 0 min 0 min 0 W/m 19,3 km/h (3 Bft) 97,87 %
14.03.2023 03:24 9,8 C 8,9 C 5,0 C 91 % 991,1 hPa 0,0 l/m 0 min 0 min 0 W/m 12,9 km/h (3 Bft) 95,74 %
14.03.2023 03:26 9,8 C 8,9 C 5,0 C 91 % 991,2 hPa 0,0 l/m 0 min 0 min 0 W/m 32,2 km/h (5 Bft) 93,48 %
14.03.2023 03:28 9,8 C 8,9 C 5,0 C 91 % 991,2 hPa 0,0 l/m 0 min 0 min 0 W/m 25,7 km/h (4 Bft) 95,74 %
14.03.2023 03:30 9,8 C 8,9 C 5,0 C 91 % 991,3 hPa 0,0 l/m 0 min 0 min 0 W/m 35,4 km/h (5 Bft) 93,62 %
14.03.2023 03:32 9,8 C 8,9 C 5,0 C 91 % 991,2 hPa 0,0 l/m 0 min 0 min 0 W/m 22,5 km/h (4 Bft) 95,74 %
14.03.2023 03:34 9,8 C 8,9 C 5,0 C 91 % 991,2 hPa 0,0 l/m 0 min 0 min 0 W/m 19,3 km/h (3 Bft) 95,74 %
14.03.2023 03:36 9,8 C 8,9 C 5,0 C 91 % 991,3 hPa 0,0 l/m 0 min 0 min 0 W/m 29,0 km/h (5 Bft) 95,74 %
14.03.2023 03:38 9,8 C 8,9 C 5,0 C 91 % 991,3 hPa 0,0 l/m 0 min 0 min 0 W/m 29,0 km/h (5 Bft) 91,30 %
14.03.2023 03:40 9,9 C 8,9 C 5,0 C 91 % 991,3 hPa 0,0 l/m 0 min 0 min 0 W/m 29,0 km/h (5 Bft) 95,74 %
14.03.2023 03:42 9,8 C 8,9 C 5,0 C 91 % 991,2 hPa 0,0 l/m 0 min 0 min 0 W/m 25,7 km/h (4 Bft) 93,62 %
14.03.2023 03:44 9,8 C 8,9 C 5,0 C 91 % 991,3 hPa 0,0 l/m 0 min 0 min 0 W/m 32,2 km/h (5 Bft) 95,74 %
14.03.2023 03:46 9,8 C 8,9 C 5,0 C 91 % 991,2 hPa 0,0 l/m 0 min 0 min 0 W/m 22,5 km/h (4 Bft) 95,74 %
14.03.2023 03:48 9,8 C 8,9 C 5,0 C 91 % 991,2 hPa 0,0 l/m 0 min 0 min 0 W/m 22,5 km/h (4 Bft) 95,74 %
14.03.2023 03:50 9,8 C 8,9 C 5,0 C 91 % 991,2 hPa 0,0 l/m 0 min 0 min 0 W/m 19,3 km/h (3 Bft) 95,74 %
14.03.2023 03:52 9,8 C 8,9 C 5,0 C 91 % 991,1 hPa 0,0 l/m 0 min 0 min 0 W/m 29,0 km/h (5 Bft) 93,48 %
14.03.2023 03:54 9,8 C 9,4 C 4,4 C 91 % 991,1 hPa 0,0 l/m 0 min 0 min 0 W/m 22,5 km/h (4 Bft) 97,87 %
14.03.2023 03:56 9,8 C 9,4 C 5,0 C 91 % 991,2 hPa 0,0 l/m 0 min 0 min 0 W/m 29,0 km/h (5 Bft) 97,87 %
14.03.2023 03:58 9,8 C 8,9 C 5,0 C 91 % 991,1 hPa 0,0 l/m 0 min 0 min 0 W/m 12,9 km/h (3 Bft) 100,00 %
14.03.2023 04:00 9,9 C 8,9 C 5,0 C 90 % 991,0 hPa 0,0 l/m 0 min 0 min 0 W/m 12,9 km/h (3 Bft) 97,87 %
14.03.2023 04:02 9,9 C 9,4 C 5,0 C 90 % 991,0 hPa 0,0 l/m 0 min 0 min 0 W/m 22,5 km/h (4 Bft) 97,87 %
14.03.2023 04:04 9,9 C 9,4 C 4,4 C 90 % 991,0 hPa 0,0 l/m 0 min 0 min 0 W/m 35,4 km/h (5 Bft) 100,00 %
14.03.2023 04:06 9,9 C 9,4 C 5,0 C 90 % 991,0 hPa 0,0 l/m 0 min 0 min 0 W/m 19,3 km/h (3 Bft) 100,00 %
14.03.2023 04:08 9,9 C 9,4 C 5,0 C 90 % 991,0 hPa 0,0 l/m 0 min 0 min 0 W/m 19,3 km/h (3 Bft) 100,00 %
14.03.2023 04:10 9,9 C 8,9 C 5,0 C 90 % 991,0 hPa 0,0 l/m 0 min 0 min 0 W/m 12,9 km/h (3 Bft) 97,87 %
14.03.2023 04:12 9,9 C 8,9 C 5,0 C 90 % 990,9 hPa 0,0 l/m 0 min 0 min 0 W/m 19,3 km/h (3 Bft) 97,87 %
14.03.2023 04:14 9,9 C 8,9 C 5,0 C 90 % 990,9 hPa 0,0 l/m 0 min 0 min 0 W/m 16,1 km/h (3 Bft) 95,83 %
14.03.2023 04:16 9,9 C 8,9 C 5,0 C 90 % 990,9 hPa 0,0 l/m 0 min 0 min 0 W/m 6,4 km/h (2 Bft) 100,00 %
14.03.2023 04:18 9,9 C 8,9 C 5,0 C 90 % 990,9 hPa 0,0 l/m 0 min 2 min 0 W/m 22,5 km/h (4 Bft) 97,96 %
14.03.2023 04:20 9,9 C 8,9 C 5,0 C 90 % 991,0 hPa 0,0 l/m 0 min 2 min 0 W/m 29,0 km/h (5 Bft) 97,87 %
14.03.2023 04:22 9,8 C 8,9 C 5,0 C 90 % 991,0 hPa 0,0 l/m 0 min 2 min 0 W/m 16,1 km/h (3 Bft) 97,87 %
14.03.2023 04:24 9,9 C 8,9 C 5,0 C 90 % 991,0 hPa 0,0 l/m 0 min 2 min 0 W/m 16,1 km/h (3 Bft) 95,74 %
14.03.2023 04:26 9,8 C 8,9 C 5,0 C 90 % 990,9 hPa 0,0 l/m 0 min 2 min 0 W/m 12,9 km/h (3 Bft) 98,00 %
14.03.2023 04:28 9,8 C 8,9 C 5,0 C 91 % 990,9 hPa 0,0 l/m 0 min 0 min 0 W/m 19,3 km/h (3 Bft) 95,74 %
14.03.2023 04:30 9,8 C 8,9 C 5,0 C 91 % 991,0 hPa 0,2 l/m 0 min 0 min 0 W/m 25,7 km/h (4 Bft) 97,83 %
14.03.2023 04:32 9,8 C 8,9 C 5,0 C 91 % 991,0 hPa 0,0 l/m 0 min 0 min 0 W/m 19,3 km/h (3 Bft) 97,87 %
14.03.2023 04:34 9,8 C 8,9 C 5,0 C 91 % 990,9 hPa 0,0 l/m 0 min 0 min 0 W/m 25,7 km/h (4 Bft) 95,74 %
14.03.2023 04:36 9,8 C 8,9 C 5,0 C 91 % 990,9 hPa 0,0 l/m 0 min 2 min 0 W/m 22,5 km/h (4 Bft) 97,87 %
14.03.2023 04:38 9,8 C 8,9 C 5,0 C 91 % 990,9 hPa 0,0 l/m 0 min 0 min 0 W/m 29,0 km/h (5 Bft) 97,87 %
14.03.2023 04:40 9,8 C 8,9 C 5,0 C 91 % 990,9 hPa 0,0 l/m 0 min 2 min 0 W/m 29,0 km/h (5 Bft) 93,62 %
14.03.2023 04:42 9,8 C 8,9 C 5,0 C 91 % 990,9 hPa 0,0 l/m 0 min 0 min 0 W/m 22,5 km/h (4 Bft) 97,87 %
14.03.2023 04:44 9,8 C 8,9 C 5,0 C 91 % 990,8 hPa 0,0 l/m 0 min 0 min 0 W/m 22,5 km/h (4 Bft) 97,87 %
14.03.2023 04:46 9,8 C 8,9 C 5,0 C 91 % 990,9 hPa 0,0 l/m 0 min 2 min 0 W/m 32,2 km/h (5 Bft) 95,74 %
14.03.2023 04:48 9,8 C 8,3 C 5,0 C 91 % 990,8 hPa 0,0 l/m 0 min 2 min 0 W/m 32,2 km/h (5 Bft) 97,87 %
14.03.2023 04:50 9,8 C 8,3 C 5,0 C 91 % 990,8 hPa 0,0 l/m 0 min 2 min 0 W/m 35,4 km/h (5 Bft) 97,87 %
14.03.2023 04:52 9,7 C 7,8 C 4,4 C 91 % 990,9 hPa 0,2 l/m 0 min 2 min 0 W/m 38,6 km/h (5 Bft) 97,22 %
14.03.2023 04:54 9,6 C 7,8 C 4,4 C 92 % 990,9 hPa 0,2 l/m 0 min 2 min 0 W/m 29,0 km/h (5 Bft) 97,87 %
14.03.2023 04:56 9,6 C 7,8 C 4,4 C 92 % 990,9 hPa 0,0 l/m 0 min 2 min 0 W/m 22,5 km/h (4 Bft) 97,87 %
14.03.2023 04:58 9,6 C 7,8 C 4,4 C 92 % 990,8 hPa 0,2 l/m 0 min 2 min 0 W/m 22,5 km/h (4 Bft) 95,92 %
14.03.2023 05:00 9,5 C 7,8 C 4,4 C 92 % 990,7 hPa 0,2 l/m 0 min 2 min 0 W/m 19,3 km/h (3 Bft) 97,83 %
14.03.2023 05:02 9,4 C 7,8 C 4,4 C 92 % 990,8 hPa 0,0 l/m 0 min 2 min 0 W/m 35,4 km/h (5 Bft) 97,87 %
14.03.2023 05:04 9,4 C 7,8 C 4,4 C 93 % 990,8 hPa 0,0 l/m 0 min 2 min 0 W/m 29,0 km/h (5 Bft) 95,74 %
14.03.2023 05:06 9,3 C 7,8 C 4,4 C 93 % 990,8 hPa 0,2 l/m 0 min 2 min 0 W/m 32,2 km/h (5 Bft) 98,31 %
14.03.2023 05:08 9,2 C 7,8 C 4,4 C 93 % 990,7 hPa 0,0 l/m 0 min 2 min 0 W/m 19,3 km/h (3 Bft) 100,00 %
14.03.2023 05:10 9,2 C 7,2 C 4,4 C 93 % 990,8 hPa 0,2 l/m 0 min 2 min 0 W/m 25,7 km/h (4 Bft) 100,00 %
14.03.2023 05:12 9,1 C 7,2 C 4,4 C 93 % 990,7 hPa 0,2 l/m 0 min 2 min 0 W/m 25,7 km/h (4 Bft) 97,87 %
14.03.2023 05:14 9,1 C 7,2 C 4,4 C 93 % 990,7 hPa 0,0 l/m 0 min 2 min 0 W/m 41,8 km/h (6 Bft) 97,83 %
14.03.2023 05:16 9,1 C 7,2 C 4,4 C 93 % 990,8 hPa 0,2 l/m 0 min 2 min 0 W/m 19,3 km/h (3 Bft) 97,87 %
14.03.2023 05:18 9,1 C 7,2 C 4,4 C 93 % 990,9 hPa 0,2 l/m 0 min 2 min 0 W/m 19,3 km/h (3 Bft) 97,87 %
14.03.2023 05:20 9,0 C 7,2 C 4,4 C 93 % 990,7 hPa 0,2 l/m 0 min 2 min 0 W/m 32,2 km/h (5 Bft) 95,74 %
14.03.2023 05:22 8,9 C 7,2 C 4,4 C 93 % 990,8 hPa 0,2 l/m 0 min 2 min 0 W/m 32,2 km/h (5 Bft) 97,87 %
14.03.2023 05:24 8,9 C 7,2 C 4,4 C 94 % 990,8 hPa 0,2 l/m 0 min 2 min 0 W/m 29,0 km/h (5 Bft) 98,15 %
14.03.2023 05:26 8,9 C 7,2 C 4,4 C 94 % 990,7 hPa 0,2 l/m 0 min 2 min 0 W/m 25,7 km/h (4 Bft) 97,87 %
14.03.2023 05:28 8,8 C 7,2 C 4,4 C 94 % 990,8 hPa 0,2 l/m 0 min 2 min 0 W/m 25,7 km/h (4 Bft) 95,74 %
14.03.2023 05:30 8,8 C 7,2 C 4,4 C 94 % 990,8 hPa 0,2 l/m 0 min 2 min 0 W/m 29,0 km/h (5 Bft) 95,74 %
14.03.2023 05:32 8,8 C 7,2 C 4,4 C 94 % 990,7 hPa 0,2 l/m 0 min 2 min 0 W/m 35,4 km/h (5 Bft) 95,74 %
14.03.2023 05:34 8,8 C 7,2 C 4,4 C 94 % 990,8 hPa 0,0 l/m 0 min 2 min 0 W/m 25,7 km/h (4 Bft) 97,87 %
14.03.2023 05:36 8,8 C 7,2 C 4,4 C 94 % 990,7 hPa 0,0 l/m 0 min 2 min 0 W/m 25,7 km/h (4 Bft) 97,83 %
14.03.2023 05:38 8,7 C 7,2 C 4,4 C 95 % 990,7 hPa 0,2 l/m 0 min 0 min 0 W/m 25,7 km/h (4 Bft) 97,37 %
14.03.2023 05:40 8,7 C 7,2 C 4,4 C 95 % 990,6 hPa 0,0 l/m 0 min 0 min 0 W/m 29,0 km/h (5 Bft) 93,48 %
14.03.2023 05:42 8,7 C 7,2 C 4,4 C 95 % 990,7 hPa 0,0 l/m 0 min 2 min 0 W/m 12,9 km/h (3 Bft) 97,87 %
14.03.2023 05:44 8,7 C 7,2 C 4,4 C 95 % 990,5 hPa 0,2 l/m 0 min 2 min 0 W/m 16,1 km/h (3 Bft) 100,00 %
14.03.2023 05:46 8,6 C 7,2 C 4,4 C 95 % 990,4 hPa 0,0 l/m 0 min 2 min 0 W/m 9,7 km/h (2 Bft) 100,00 %
14.03.2023 05:48 8,6 C 7,2 C 4,4 C 95 % 990,5 hPa 0,0 l/m 0 min 2 min 0 W/m 3,2 km/h (1 Bft) 97,87 %
14.03.2023 05:50 8,6 C 7,2 C 4,4 C 95 % 990,3 hPa 0,2 l/m 0 min 2 min 0 W/m 12,9 km/h (3 Bft) 95,74 %
14.03.2023 05:52 8,6 C 7,2 C 4,4 C 95 % 990,3 hPa 0,0 l/m 0 min 0 min 0 W/m 12,9 km/h (3 Bft) 97,87 %
14.03.2023 05:54 8,6 C 7,2 C 4,4 C 95 % 990,2 hPa 0,2 l/m 0 min 0 min 0 W/m 9,7 km/h (2 Bft) 93,48 %
14.03.2023 05:56 8,6 C 7,2 C 4,4 C 95 % 990,1 hPa 0,0 l/m 0 min 0 min 0 W/m 6,4 km/h (2 Bft) 97,87 %
14.03.2023 05:58 8,6 C 7,2 C 4,4 C 95 % 990,2 hPa 0,0 l/m 0 min 0 min 0 W/m 0,0 km/h (0 Bft) 95,74 %
14.03.2023 06:00 8,6 C 7,2 C 4,4 C 96 % 990,3 hPa 0,0 l/m 0 min 0 min 0 W/m 0,0 km/h (0 Bft) 97,87 %
14.03.2023 06:02 8,6 C 7,2 C 4,4 C 96 % 990,2 hPa 0,0 l/m 0 min 0 min 0 W/m 0,0 km/h (0 Bft) 95,74 %
14.03.2023 06:04 8,6 C 7,2 C 4,4 C 96 % 990,2 hPa 0,0 l/m 0 min 0 min 0 W/m 0,0 km/h (0 Bft) 97,87 %
14.03.2023 06:07 8,6 C 7,2 C 4,4 C 96 % 990,2 hPa 0,0 l/m 0 min 0 min 0 W/m 0,0 km/h (0 Bft) 95,83 %
14.03.2023 06:08 8,5 C 7,2 C 4,4 C 96 % 990,2 hPa 0,0 l/m 0 min 0 min 0 W/m 0,0 km/h (0 Bft) 100,00 %
14.03.2023 06:12 8,5 C 7,2 C 4,4 C 96 % 990,1 hPa 0,0 l/m 0 min 0 min 0 W/m 0,0 km/h (0 Bft) 96,30 %
14.03.2023 06:14 8,6 C 7,2 C 4,4 C 96 % 990,1 hPa 0,0 l/m 0 min 0 min 0 W/m 16,1 km/h (3 Bft) 97,87 %
14.03.2023 06:16 8,6 C 7,2 C 4,4 C 96 % 990,1 hPa 0,0 l/m 0 min 0 min 0 W/m 9,7 km/h (2 Bft) 97,83 %
14.03.2023 06:18 8,6 C 7,2 C 4,4 C 96 % 990,1 hPa 0,0 l/m 0 min 0 min 0 W/m 6,4 km/h (2 Bft) 95,74 %
14.03.2023 06:20 8,6 C 7,8 C 4,4 C 96 % 990,1 hPa 0,0 l/m 0 min 0 min 0 W/m 6,4 km/h (2 Bft) 97,87 %
14.03.2023 06:22 8,6 C 7,8 C 4,4 C 96 % 990,1 hPa 0,0 l/m 0 min 0 min 0 W/m 9,7 km/h (2 Bft) 97,87 %
14.03.2023 06:24 8,6 C 7,8 C 5,0 C 96 % 990,0 hPa 0,0 l/m 0 min 0 min 0 W/m 3,2 km/h (1 Bft) 97,87 %
14.03.2023 06:26 8,6 C 7,8 C 4,4 C 96 % 989,9 hPa 0,0 l/m 0 min 0 min 0 W/m 22,5 km/h (4 Bft) 97,87 %
14.03.2023 06:28 8,6 C 7,8 C 5,0 C 96 % 989,9 hPa 0,0 l/m 0 min 0 min 0 W/m 16,1 km/h (3 Bft) 97,87 %
14.03.2023 06:30 8,7 C 7,8 C 5,0 C 96 % 989,9 hPa 0,0 l/m 0 min 0 min 0 W/m 9,7 km/h (2 Bft) 95,65 %
14.03.2023 06:32 8,7 C 7,8 C 5,0 C 97 % 989,8 hPa 0,0 l/m 0 min 0 min 0 W/m 19,3 km/h (3 Bft) 97,87 %
14.03.2023 06:34 8,7 C 7,8 C 5,0 C 97 % 989,8 hPa 0,0 l/m 0 min 0 min 0 W/m 16,1 km/h (3 Bft) 100,00 %
14.03.2023 06:36 8,7 C 7,8 C 5,0 C 97 % 989,8 hPa 0,0 l/m 0 min 0 min 0 W/m 25,7 km/h (4 Bft) 100,00 %
14.03.2023 06:38 8,7 C 7,8 C 5,0 C 97 % 989,8 hPa 0,0 l/m 0 min 2 min 0 W/m 25,7 km/h (4 Bft) 100,00 %
14.03.2023 06:40 8,8 C 7,8 C 5,0 C 97 % 989,8 hPa 0,0 l/m 0 min 0 min 0 W/m 25,7 km/h (4 Bft) 100,00 %
14.03.2023 06:42 8,8 C 7,8 C 5,0 C 97 % 989,7 hPa 0,0 l/m 0 min 0 min 0 W/m 19,3 km/h (3 Bft) 100,00 %
14.03.2023 06:44 8,8 C 7,8 C 5,0 C 97 % 989,8 hPa 0,0 l/m 0 min 2 min 0 W/m 22,5 km/h (4 Bft) 97,87 %
14.03.2023 06:46 8,9 C 7,8 C 5,0 C 97 % 989,8 hPa 0,2 l/m 0 min 2 min 0 W/m 29,0 km/h (5 Bft) 100,00 %
14.03.2023 06:48 8,9 C 7,8 C 5,0 C 97 % 989,8 hPa 0,0 l/m 0 min 2 min 0 W/m 19,3 km/h (3 Bft) 100,00 %
14.03.2023 06:50 8,9 C 7,8 C 5,0 C 97 % 989,8 hPa 0,0 l/m 0 min 0 min 0 W/m 25,7 km/h (4 Bft) 100,00 %
14.03.2023 06:52 8,9 C 7,8 C 5,0 C 97 % 989,8 hPa 0,0 l/m 0 min 2 min 0 W/m 29,0 km/h (5 Bft) 97,87 %
14.03.2023 06:54 8,9 C 7,8 C 5,0 C 97 % 989,7 hPa 0,0 l/m 0 min 2 min 0 W/m 19,3 km/h (3 Bft) 95,74 %
14.03.2023 06:56 8,9 C 7,8 C 5,0 C 97 % 989,7 hPa 0,0 l/m 0 min 2 min 0 W/m 35,4 km/h (5 Bft) 97,83 %
14.03.2023 06:58 9,0 C 7,8 C 5,0 C 97 % 989,7 hPa 0,0 l/m 0 min 2 min 1 W/m 29,0 km/h (5 Bft) 100,00 %
14.03.2023 07:00 9,0 C 7,8 C 5,0 C 97 % 989,7 hPa 0,0 l/m 0 min 2 min 6 W/m 32,2 km/h (5 Bft) 100,00 %
14.03.2023 07:02 9,0 C 7,8 C 5,0 C 97 % 989,8 hPa 0,0 l/m 0 min 2 min 8 W/m 29,0 km/h (5 Bft) 91,49 %
14.03.2023 07:04 9,0 C 8,3 C 5,0 C 97 % 989,8 hPa 0,0 l/m 0 min 2 min 11 W/m 32,2 km/h (5 Bft) 100,00 %
14.03.2023 07:06 9,1 C 8,3 C 5,0 C 97 % 989,7 hPa 0,0 l/m 0 min 0 min 13 W/m 35,4 km/h (5 Bft) 96,55 %
14.03.2023 07:08 9,1 C 8,3 C 5,0 C 97 % 989,7 hPa 0,0 l/m 0 min 0 min 16 W/m 16,1 km/h (3 Bft) 97,22 %
14.03.2023 07:10 9,1 C 8,3 C 5,0 C 97 % 989,8 hPa 0,0 l/m 0 min 0 min 16 W/m 25,7 km/h (4 Bft) 97,83 %
14.03.2023 07:12 9,1 C 8,3 C 5,0 C 97 % 989,7 hPa 0,0 l/m 0 min 0 min 13 W/m 25,7 km/h (4 Bft) 95,74 %
14.03.2023 07:14 9,1 C 8,3 C 5,0 C 97 % 989,8 hPa 0,0 l/m 0 min 0 min 20 W/m 29,0 km/h (5 Bft) 93,62 %
14.03.2023 07:16 9,1 C 8,3 C 5,0 C 97 % 989,7 hPa 0,0 l/m 0 min 0 min 17 W/m 19,3 km/h (3 Bft) 95,74 %
14.03.2023 07:18 9,1 C 8,3 C 5,0 C 97 % 989,7 hPa 0,0 l/m 0 min 0 min 18 W/m 29,0 km/h (5 Bft) 95,74 %
14.03.2023 07:20 9,1 C 8,3 C 5,0 C 97 % 989,7 hPa 0,0 l/m 0 min 2 min 23 W/m 25,7 km/h (4 Bft) 93,62 %
14.03.2023 07:22 9,1 C 8,3 C 5,0 C 97 % 989,7 hPa 0,0 l/m 0 min 2 min 28 W/m 29,0 km/h (5 Bft) 93,62 %
14.03.2023 07:24 9,1 C 8,3 C 5,0 C 97 % 989,7 hPa 0,0 l/m 0 min 2 min 29 W/m 25,7 km/h (4 Bft) 95,65 %
14.03.2023 07:26 9,1 C 8,3 C 5,0 C 97 % 989,7 hPa 0,0 l/m 0 min 2 min 28 W/m 25,7 km/h (4 Bft) 95,74 %
14.03.2023 07:28 9,2 C 8,3 C 5,0 C 97 % 989,7 hPa 0,0 l/m 0 min 0 min 29 W/m 22,5 km/h (4 Bft) 95,74 %
14.03.2023 07:30 9,2 C 8,3 C 5,0 C 97 % 989,8 hPa 0,0 l/m 0 min 2 min 37 W/m 25,7 km/h (4 Bft) 95,74 %
14.03.2023 07:32 9,2 C 8,3 C 5,0 C 97 % 989,8 hPa 0,0 l/m 2 min 2 min 53 W/m 25,7 km/h (4 Bft) 95,74 %
14.03.2023 07:34 9,2 C 8,3 C 5,0 C 97 % 989,7 hPa 0,0 l/m 0 min 2 min 32 W/m 22,5 km/h (4 Bft) 95,74 %
14.03.2023 07:36 9,2 C 8,3 C 5,0 C 97 % 989,7 hPa 0,0 l/m 0 min 2 min 29 W/m 25,7 km/h (4 Bft) 91,30 %
14.03.2023 07:38 9,2 C 8,3 C 5,0 C 97 % 989,8 hPa 0,0 l/m 0 min 2 min 42 W/m 35,4 km/h (5 Bft) 95,74 %
14.03.2023 07:40 9,2 C 8,3 C 5,0 C 97 % 989,8 hPa 0,0 l/m 0 min 2 min 43 W/m 22,5 km/h (4 Bft) 93,62 %
14.03.2023 07:42 9,2 C 8,3 C 5,0 C 97 % 989,8 hPa 0,0 l/m 0 min 2 min 25 W/m 32,2 km/h (5 Bft) 97,87 %
14.03.2023 07:44 9,2 C 8,3 C 5,0 C 97 % 989,8 hPa 0,0 l/m 0 min 2 min 19 W/m 22,5 km/h (4 Bft) 97,87 %
14.03.2023 07:46 9,2 C 8,3 C 5,0 C 97 % 989,8 hPa 0,0 l/m 0 min 2 min 19 W/m 22,5 km/h (4 Bft) 97,87 %
14.03.2023 07:48 9,2 C 8,3 C 5,0 C 97 % 989,8 hPa 0,0 l/m 0 min 2 min 24 W/m 25,7 km/h (4 Bft) 95,74 %
14.03.2023 07:50 9,3 C 8,3 C 5,0 C 97 % 989,8 hPa 0,0 l/m 0 min 2 min 43 W/m 32,2 km/h (5 Bft) 97,83 %
14.03.2023 07:52 9,3 C 8,3 C 5,6 C 97 % 989,8 hPa 0,0 l/m 0 min 2 min 71 W/m 32,2 km/h (5 Bft) 97,87 %
14.03.2023 07:54 9,3 C 8,3 C 5,6 C 97 % 989,8 hPa 0,0 l/m 2 min 0 min 94 W/m 25,7 km/h (4 Bft) 95,74 %
14.03.2023 07:56 9,3 C 8,9 C 5,6 C 97 % 989,8 hPa 0,0 l/m 0 min 0 min 78 W/m 19,3 km/h (3 Bft) 97,87 %
14.03.2023 07:58 9,3 C 8,9 C 5,6 C 97 % 989,8 hPa 0,0 l/m 0 min 0 min 69 W/m 19,3 km/h (3 Bft) 100,00 %
14.03.2023 08:00 9,4 C 8,9 C 5,6 C 97 % 989,8 hPa 0,0 l/m 0 min 0 min 49 W/m 16,1 km/h (3 Bft) 95,74 %
14.03.2023 08:02 9,4 C 8,9 C 5,6 C 97 % 989,8 hPa 0,0 l/m 0 min 0 min 32 W/m 25,7 km/h (4 Bft) 56,52 %
14.03.2023 08:04 9,4 C 8,9 C 5,6 C 97 % 989,9 hPa 0,0 l/m 0 min 0 min 35 W/m 22,5 km/h (4 Bft) 59,52 %
14.03.2023 08:06 9,4 C 8,9 C 5,6 C 97 % 989,9 hPa 0,0 l/m 0 min 0 min 29 W/m 25,7 km/h (4 Bft) 50,00 %
14.03.2023 08:08 9,4 C 8,3 C 5,6 C 97 % 989,9 hPa 0,0 l/m 0 min 0 min 19 W/m 12,9 km/h (3 Bft) 31,43 %
14.03.2023 08:10 9,4 C 8,3 C 5,6 C 97 % 990,0 hPa 0,0 l/m 0 min 0 min 20 W/m 35,4 km/h (5 Bft) 31,91 %
14.03.2023 08:12 9,4 C 8,3 C 5,6 C 97 % 990,0 hPa 0,0 l/m 0 min 0 min 21 W/m 22,5 km/h (4 Bft) 14,89 %
14.03.2023 08:14 9,4 C 8,3 C 5,6 C 97 % 990,0 hPa 0,0 l/m 0 min 2 min 21 W/m 12,9 km/h (3 Bft) 10,64 %
14.03.2023 08:16 9,4 C 8,3 C 5,6 C 97 % 990,0 hPa 0,0 l/m 0 min 2 min 32 W/m 22,5 km/h (4 Bft) 45,45 %
14.03.2023 08:18 9,4 C 8,3 C 5,6 C 97 % 990,0 hPa 0,2 l/m 0 min 2 min 54 W/m 25,7 km/h (4 Bft) 87,23 %
14.03.2023 08:20 9,4 C 8,9 C 5,6 C 97 % 990,0 hPa 0,0 l/m 2 min 0 min 113 W/m 16,1 km/h (3 Bft) 85,11 %
14.03.2023 08:22 9,5 C 8,9 C 5,6 C 97 % 990,0 hPa 0,0 l/m 0 min 0 min 107 W/m 19,3 km/h (3 Bft) 84,78 %
14.03.2023 08:24 9,5 C 8,9 C 5,6 C 97 % 990,0 hPa 0,0 l/m 2 min 0 min 118 W/m 22,5 km/h (4 Bft) 95,74 %
14.03.2023 08:26 9,6 C 8,9 C 5,6 C 97 % 990,0 hPa 0,0 l/m 0 min 0 min 93 W/m 25,7 km/h (4 Bft) 95,74 %
14.03.2023 08:28 9,6 C 8,9 C 5,6 C 97 % 990,0 hPa 0,0 l/m 0 min 0 min 92 W/m 19,3 km/h (3 Bft) 97,87 %
14.03.2023 08:30 9,6 C 8,9 C 5,6 C 97 % 990,0 hPa 0,0 l/m 0 min 0 min 65 W/m 22,5 km/h (4 Bft) 91,49 %
14.03.2023 08:32 9,6 C 8,9 C 5,6 C 97 % 990,1 hPa 0,0 l/m 0 min 2 min 62 W/m 16,1 km/h (3 Bft) 97,87 %
14.03.2023 08:34 9,6 C 8,9 C 5,6 C 97 % 990,0 hPa 0,0 l/m 0 min 0 min 62 W/m 12,9 km/h (3 Bft) 95,74 %
14.03.2023 08:36 9,6 C 8,9 C 5,6 C 97 % 990,0 hPa 0,0 l/m 0 min 0 min 56 W/m 19,3 km/h (3 Bft) 89,13 %
14.03.2023 08:38 9,6 C 8,9 C 5,6 C 97 % 990,1 hPa 0,0 l/m 0 min 0 min 52 W/m 22,5 km/h (4 Bft) 93,62 %
14.03.2023 08:40 9,6 C 8,9 C 5,6 C 97 % 990,1 hPa 0,0 l/m 0 min 0 min 58 W/m 19,3 km/h (3 Bft) 87,23 %
14.03.2023 08:42 9,6 C 8,9 C 5,6 C 97 % 990,0 hPa 0,0 l/m 0 min 0 min 64 W/m 16,1 km/h (3 Bft) 78,72 %
14.03.2023 08:44 9,7 C 8,9 C 5,6 C 97 % 990,1 hPa 0,0 l/m 0 min 0 min 82 W/m 29,0 km/h (5 Bft) 93,62 %
14.03.2023 08:46 9,7 C 9,4 C 5,6 C 97 % 990,1 hPa 0,0 l/m 0 min 0 min 90 W/m 25,7 km/h (4 Bft) 97,87 %
14.03.2023 08:48 9,7 C 9,4 C 6,1 C 97 % 990,1 hPa 0,0 l/m 0 min 0 min 110 W/m 19,3 km/h (3 Bft) 95,74 %
14.03.2023 08:50 9,7 C 9,4 C 6,1 C 97 % 990,1 hPa 0,0 l/m 2 min 0 min 157 W/m 25,7 km/h (4 Bft) 89,13 %
14.03.2023 08:52 9,8 C 9,4 C 6,1 C 97 % 990,1 hPa 0,0 l/m 0 min 0 min 135 W/m 32,2 km/h (5 Bft) 97,87 %
14.03.2023 08:54 9,8 C 9,4 C 6,1 C 97 % 990,2 hPa 0,0 l/m 0 min 0 min 112 W/m 22,5 km/h (4 Bft) 95,74 %
14.03.2023 08:56 9,8 C 9,4 C 6,1 C 97 % 990,2 hPa 0,0 l/m 0 min 0 min 111 W/m 22,5 km/h (4 Bft) 97,87 %
14.03.2023 08:58 9,9 C 10,0 C 6,1 C 97 % 990,2 hPa 0,0 l/m 0 min 0 min 148 W/m 22,5 km/h (4 Bft) 92,73 %
14.03.2023 09:00 9,9 C 10,0 C 6,1 C 97 % 990,2 hPa 0,0 l/m 0 min 2 min 143 W/m 35,4 km/h (5 Bft) 95,74 %
14.03.2023 09:02 10,0 C 10,0 C 6,1 C 97 % 990,2 hPa 0,0 l/m 0 min 0 min 124 W/m 35,4 km/h (5 Bft) 91,49 %
14.03.2023 09:04 10,1 C 10,0 C 6,1 C 97 % 990,2 hPa 0,0 l/m 0 min 0 min 119 W/m 22,5 km/h (4 Bft) 95,74 %
14.03.2023 09:06 10,1 C 10,0 C 6,1 C 96 % 990,2 hPa 0,0 l/m 0 min 0 min 131 W/m 16,1 km/h (3 Bft) 97,87 %
14.03.2023 09:08 10,1 C 10,0 C 6,1 C 97 % 990,2 hPa 0,0 l/m 0 min 0 min 112 W/m 19,3 km/h (3 Bft) 97,87 %
14.03.2023 09:10 10,2 C 10,0 C 6,1 C 96 % 990,3 hPa 0,0 l/m 0 min 0 min 101 W/m 19,3 km/h (3 Bft) 97,83 %
14.03.2023 09:12 10,2 C 10,0 C 6,1 C 96 % 990,2 hPa 0,0 l/m 0 min 0 min 160 W/m 19,3 km/h (3 Bft) 95,74 %
14.03.2023 09:14 10,2 C 10,0 C 6,1 C 96 % 990,3 hPa 0,0 l/m 2 min 0 min 174 W/m 22,5 km/h (4 Bft) 97,87 %
14.03.2023 09:16 10,3 C 10,6 C 6,7 C 96 % 990,3 hPa 0,0 l/m 2 min 0 min 176 W/m 19,3 km/h (3 Bft) 97,87 %
14.03.2023 09:18 10,3 C 10,6 C 6,7 C 96 % 990,3 hPa 0,0 l/m 0 min 0 min 160 W/m 19,3 km/h (3 Bft) 97,87 %
14.03.2023 09:20 10,4 C 10,6 C 6,7 C 96 % 990,2 hPa 0,0 l/m 0 min 0 min 126 W/m 22,5 km/h (4 Bft) 97,87 %
14.03.2023 09:22 10,4 C 10,0 C 6,1 C 96 % 990,3 hPa 0,0 l/m 0 min 0 min 100 W/m 25,7 km/h (4 Bft) 97,87 %
14.03.2023 09:24 10,4 C 10,0 C 6,1 C 96 % 990,3 hPa 0,0 l/m 0 min 0 min 112 W/m 19,3 km/h (3 Bft) 97,83 %
14.03.2023 09:26 10,4 C 10,0 C 6,1 C 96 % 990,3 hPa 0,0 l/m 0 min 2 min 103 W/m 19,3 km/h (3 Bft) 95,74 %
14.03.2023 09:28 10,4 C 10,0 C 6,1 C 95 % 990,3 hPa 0,0 l/m 0 min 2 min 88 W/m 32,2 km/h (5 Bft) 95,74 %
14.03.2023 09:30 10,4 C 10,0 C 6,1 C 95 % 990,4 hPa 0,0 l/m 0 min 2 min 93 W/m 29,0 km/h (5 Bft) 97,87 %
14.03.2023 09:32 10,4 C 10,0 C 6,1 C 95 % 990,4 hPa 0,0 l/m 0 min 2 min 79 W/m 35,4 km/h (5 Bft) 97,87 %
14.03.2023 09:34 10,4 C 10,0 C 6,1 C 95 % 990,5 hPa 0,0 l/m 0 min 2 min 100 W/m 19,3 km/h (3 Bft) 97,87 %
14.03.2023 09:36 10,4 C 9,4 C 6,1 C 95 % 990,5 hPa 0,0 l/m 0 min 2 min 103 W/m 25,7 km/h (4 Bft) 97,83 %
14.03.2023 09:38 10,3 C 9,4 C 6,1 C 95 % 990,5 hPa 0,0 l/m 0 min 2 min 103 W/m 22,5 km/h (4 Bft) 97,87 %
14.03.2023 09:40 10,3 C 9,4 C 6,1 C 95 % 990,6 hPa 0,0 l/m 0 min 2 min 85 W/m 29,0 km/h (5 Bft) 100,00 %
14.03.2023 09:42 10,3 C 9,4 C 6,1 C 95 % 990,9 hPa 0,0 l/m 0 min 2 min 79 W/m 32,2 km/h (5 Bft) 100,00 %
14.03.2023 09:44 10,3 C 9,4 C 6,1 C 95 % 990,7 hPa 0,0 l/m 0 min 2 min 73 W/m 19,3 km/h (3 Bft) 95,74 %
14.03.2023 09:46 10,3 C 9,4 C 6,1 C 95 % 990,7 hPa 0,2 l/m 0 min 2 min 82 W/m 25,7 km/h (4 Bft) 100,00 %
14.03.2023 09:48 10,2 C 9,4 C 6,1 C 95 % 990,7 hPa 0,0 l/m 0 min 2 min 92 W/m 29,0 km/h (5 Bft) 97,87 %
14.03.2023 09:50 10,2 C 9,4 C 6,1 C 95 % 990,8 hPa 0,0 l/m 0 min 2 min 94 W/m 19,3 km/h (3 Bft) 100,00 %
14.03.2023 09:52 10,2 C 9,4 C 6,1 C 95 % 990,8 hPa 0,0 l/m 0 min 2 min 100 W/m 16,1 km/h (3 Bft) 100,00 %
14.03.2023 09:54 10,2 C 9,4 C 6,1 C 95 % 990,8 hPa 0,0 l/m 0 min 2 min 100 W/m 19,3 km/h (3 Bft) 100,00 %
14.03.2023 09:56 10,2 C 9,4 C 6,1 C 95 % 990,8 hPa 0,0 l/m 0 min 2 min 84 W/m 16,1 km/h (3 Bft) 97,87 %
14.03.2023 09:58 10,2 C 9,4 C 6,1 C 95 % 990,9 hPa 0,0 l/m 0 min 2 min 70 W/m 19,3 km/h (3 Bft) 100,00 %
14.03.2023 10:00 10,2 C 9,4 C 6,1 C 95 % 990,8 hPa 0,0 l/m 0 min 2 min 54 W/m 16,1 km/h (3 Bft) 97,87 %
14.03.2023 10:02 10,2 C 9,4 C 6,1 C 95 % 991,0 hPa 0,2 l/m 0 min 2 min 29 W/m 16,1 km/h (3 Bft) 97,87 %
14.03.2023 10:04 10,2 C 8,9 C 6,1 C 95 % 991,4 hPa 0,4 l/m 0 min 2 min 19 W/m 22,5 km/h (4 Bft) 80,43 %
14.03.2023 10:06 9,8 C 8,3 C 5,6 C 95 % 991,4 hPa 0,4 l/m 0 min 2 min 40 W/m 32,2 km/h (5 Bft) 95,92 %
14.03.2023 10:08 9,5 C 7,8 C 5,0 C 94 % 991,5 hPa 0,0 l/m 0 min 2 min 58 W/m 38,6 km/h (5 Bft) 97,87 %
14.03.2023 10:10 9,2 C 7,8 C 4,4 C 94 % 991,6 hPa 0,0 l/m 0 min 2 min 72 W/m 25,7 km/h (4 Bft) 93,62 %
14.03.2023 10:12 8,9 C 7,8 C 4,4 C 93 % 991,6 hPa 0,0 l/m 0 min 2 min 75 W/m 29,0 km/h (5 Bft) 95,74 %
14.03.2023 10:14 8,8 C 7,8 C 4,4 C 94 % 991,9 hPa 0,0 l/m 0 min 2 min 73 W/m 22,5 km/h (4 Bft) 95,74 %
14.03.2023 10:16 8,6 C 7,2 C 4,4 C 93 % 991,9 hPa 0,0 l/m 0 min 2 min 81 W/m 19,3 km/h (3 Bft) 97,83 %
14.03.2023 10:18 8,4 C 7,2 C 4,4 C 94 % 992,1 hPa 0,0 l/m 0 min 2 min 91 W/m 32,2 km/h (5 Bft) 93,62 %
14.03.2023 10:20 8,3 C 7,2 C 4,4 C 94 % 992,1 hPa 0,0 l/m 0 min 2 min 88 W/m 19,3 km/h (3 Bft) 95,74 %
14.03.2023 10:22 8,2 C 7,2 C 4,4 C 94 % 992,2 hPa 0,2 l/m 0 min 2 min 81 W/m 25,7 km/h (4 Bft) 91,49 %
14.03.2023 10:24 8,2 C 7,2 C 4,4 C 94 % 992,3 hPa 0,0 l/m 0 min 2 min 96 W/m 19,3 km/h (3 Bft) 82,98 %
14.03.2023 10:26 8,1 C 7,2 C 4,4 C 94 % 992,4 hPa 0,0 l/m 0 min 2 min 107 W/m 35,4 km/h (5 Bft) 85,11 %
14.03.2023 10:28 8,1 C 7,2 C 4,4 C 94 % 992,4 hPa 0,0 l/m 0 min 2 min 93 W/m 25,7 km/h (4 Bft) 93,62 %
14.03.2023 10:30 8,1 C 7,2 C 4,4 C 94 % 992,5 hPa 0,0 l/m 0 min 2 min 98 W/m 19,3 km/h (3 Bft) 89,13 %
14.03.2023 10:32 8,1 C 7,2 C 4,4 C 94 % 992,6 hPa 0,0 l/m 0 min 2 min 109 W/m 22,5 km/h (4 Bft) 78,72 %
14.03.2023 10:34 8,1 C 7,8 C 4,4 C 95 % 992,7 hPa 0,0 l/m 0 min 2 min 103 W/m 22,5 km/h (4 Bft) 76,60 %
14.03.2023 10:36 8,1 C 7,8 C 4,4 C 95 % 992,8 hPa 0,0 l/m 0 min 2 min 117 W/m 16,1 km/h (3 Bft) 82,98 %
14.03.2023 10:38 8,1 C 7,8 C 4,4 C 95 % 992,9 hPa 0,0 l/m 0 min 2 min 135 W/m 25,7 km/h (4 Bft) 80,85 %
14.03.2023 10:40 8,1 C 7,8 C 4,4 C 95 % 992,9 hPa 0,0 l/m 0 min 2 min 137 W/m 35,4 km/h (5 Bft) 78,72 %
14.03.2023 10:42 8,1 C 7,8 C 4,4 C 95 % 993,0 hPa 0,0 l/m 0 min 2 min 128 W/m 29,0 km/h (5 Bft) 72,34 %
14.03.2023 10:44 8,1 C 7,8 C 4,4 C 95 % 993,0 hPa 0,0 l/m 0 min 2 min 113 W/m 19,3 km/h (3 Bft) 82,61 %
14.03.2023 10:46 8,1 C 7,2 C 4,4 C 95 % 993,1 hPa 0,0 l/m 0 min 2 min 115 W/m 29,0 km/h (5 Bft) 82,98 %
14.03.2023 10:48 8,0 C 7,2 C 4,4 C 95 % 993,1 hPa 0,2 l/m 0 min 2 min 120 W/m 25,7 km/h (4 Bft) 97,87 %
14.03.2023 10:50 8,0 C 7,2 C 4,4 C 95 % 993,2 hPa 0,0 l/m 0 min 2 min 121 W/m 22,5 km/h (4 Bft) 85,11 %
14.03.2023 10:52 8,0 C 7,2 C 4,4 C 95 % 993,3 hPa 0,0 l/m 0 min 2 min 132 W/m 35,4 km/h (5 Bft) 91,49 %
14.03.2023 10:54 8,0 C 7,2 C 4,4 C 95 % 993,4 hPa 0,0 l/m 0 min 2 min 125 W/m 32,2 km/h (5 Bft) 91,49 %
14.03.2023 10:56 7,9 C 7,2 C 4,4 C 95 % 993,5 hPa 0,0 l/m 0 min 2 min 115 W/m 25,7 km/h (4 Bft) 93,62 %
14.03.2023 10:58 8,0 C 7,2 C 4,4 C 95 % 993,6 hPa 0,0 l/m 0 min 2 min 133 W/m 19,3 km/h (3 Bft) 97,83 %
14.03.2023 11:00 7,9 C 7,2 C 4,4 C 95 % 993,7 hPa 0,0 l/m 0 min 2 min 139 W/m 25,7 km/h (4 Bft) 93,62 %
14.03.2023 11:02 7,9 C 7,2 C 4,4 C 95 % 993,7 hPa 0,0 l/m 0 min 2 min 126 W/m 22,5 km/h (4 Bft) 95,74 %
14.03.2023 11:04 7,9 C 7,2 C 4,4 C 95 % 993,8 hPa 0,0 l/m 0 min 2 min 113 W/m 32,2 km/h (5 Bft) 95,74 %
14.03.2023 11:06 8,0 C 7,8 C 4,4 C 95 % 993,8 hPa 0,0 l/m 0 min 2 min 151 W/m 22,5 km/h (4 Bft) 93,62 %
14.03.2023 11:08 8,0 C 7,8 C 4,4 C 95 % 993,8 hPa 0,0 l/m 0 min 2 min 109 W/m 25,7 km/h (4 Bft) 95,74 %
14.03.2023 11:10 8,0 C 7,2 C 4,4 C 95 % 993,9 hPa 0,0 l/m 0 min 2 min 82 W/m 22,5 km/h (4 Bft) 91,30 %
14.03.2023 11:12 8,0 C 7,2 C 3,9 C 95 % 994,1 hPa 0,0 l/m 0 min 2 min 62 W/m 16,1 km/h (3 Bft) 95,74 %
14.03.2023 11:14 7,9 C 7,2 C 3,9 C 95 % 994,1 hPa 0,0 l/m 0 min 0 min 49 W/m 22,5 km/h (4 Bft) 95,74 %
14.03.2023 11:16 7,9 C 7,2 C 3,9 C 95 % 994,2 hPa 0,0 l/m 0 min 0 min 53 W/m 19,3 km/h (3 Bft) 93,62 %
14.03.2023 11:18 7,9 C 7,2 C 3,9 C 95 % 994,4 hPa 0,0 l/m 0 min 0 min 65 W/m 19,3 km/h (3 Bft) 95,74 %
14.03.2023 11:20 7,9 C 7,2 C 3,9 C 95 % 994,5 hPa 0,0 l/m 0 min 0 min 96 W/m 19,3 km/h (3 Bft) 93,62 %
14.03.2023 11:22 7,8 C 7,2 C 3,9 C 95 % 994,5 hPa 0,0 l/m 0 min 2 min 121 W/m 25,7 km/h (4 Bft) 93,62 %
14.03.2023 11:24 7,7 C 6,7 C 3,9 C 94 % 994,5 hPa 0,0 l/m 0 min 2 min 116 W/m 38,6 km/h (5 Bft) 95,65 %
14.03.2023 11:26 7,7 C 6,7 C 3,9 C 94 % 994,7 hPa 0,0 l/m 0 min 2 min 106 W/m 22,5 km/h (4 Bft) 93,62 %
14.03.2023 11:28 7,6 C 6,7 C 3,9 C 94 % 994,8 hPa 0,0 l/m 0 min 2 min 101 W/m 19,3 km/h (3 Bft) 95,74 %
14.03.2023 11:30 7,5 C 6,7 C 3,9 C 95 % 994,8 hPa 0,0 l/m 0 min 2 min 109 W/m 25,7 km/h (4 Bft) 97,87 %
14.03.2023 11:32 7,5 C 6,7 C 3,9 C 94 % 994,9 hPa 0,0 l/m 0 min 2 min 113 W/m 35,4 km/h (5 Bft) 97,87 %
14.03.2023 11:34 7,5 C 6,7 C 3,9 C 95 % 995,0 hPa 0,0 l/m 0 min 0 min 116 W/m 29,0 km/h (5 Bft) 97,87 %
14.03.2023 11:36 7,5 C 6,7 C 3,9 C 95 % 994,9 hPa 0,0 l/m 0 min 0 min 126 W/m 19,3 km/h (3 Bft) 97,87 %
14.03.2023 11:38 7,5 C 6,7 C 3,9 C 95 % 995,0 hPa 0,0 l/m 0 min 0 min 101 W/m 19,3 km/h (3 Bft) 93,48 %
14.03.2023 11:40 7,6 C 6,7 C 3,9 C 95 % 995,1 hPa 0,0 l/m 0 min 0 min 94 W/m 19,3 km/h (3 Bft) 97,87 %
14.03.2023 11:42 7,6 C 6,7 C 3,9 C 95 % 995,3 hPa 0,0 l/m 0 min 2 min 60 W/m 16,1 km/h (3 Bft) 97,87 %
14.03.2023 11:44 7,6 C 6,7 C 3,9 C 95 % 995,5 hPa 0,0 l/m 0 min 2 min 53 W/m 29,0 km/h (5 Bft) 100,00 %
14.03.2023 11:46 7,5 C 6,7 C 3,9 C 95 % 995,6 hPa 0,0 l/m 0 min 2 min 88 W/m 25,7 km/h (4 Bft) 100,00 %
14.03.2023 11:48 7,4 C 6,7 C 3,3 C 95 % 995,7 hPa 0,2 l/m 0 min 2 min 94 W/m 29,0 km/h (5 Bft) 97,87 %
14.03.2023 11:50 7,2 C 6,1 C 3,3 C 95 % 995,8 hPa 0,0 l/m 0 min 2 min 111 W/m 45,1 km/h (6 Bft) 97,83 %
14.03.2023 11:52 7,2 C 6,1 C 3,3 C 95 % 995,9 hPa 0,2 l/m 0 min 2 min 99 W/m 38,6 km/h (5 Bft) 100,00 %
14.03.2023 11:54 7,1 C 6,1 C 3,3 C 95 % 995,9 hPa 0,0 l/m 0 min 2 min 77 W/m 35,4 km/h (5 Bft) 100,00 %
14.03.2023 11:56 7,0 C 6,1 C 3,3 C 95 % 996,1 hPa 0,0 l/m 0 min 2 min 78 W/m 29,0 km/h (5 Bft) 100,00 %
14.03.2023 11:58 6,9 C 6,1 C 3,3 C 95 % 996,2 hPa 0,0 l/m 0 min 2 min 99 W/m 41,8 km/h (6 Bft) 94,59 %
14.03.2023 12:00 6,9 C 6,1 C 3,3 C 95 % 996,3 hPa 0,0 l/m 0 min 2 min 126 W/m 29,0 km/h (5 Bft) 100,00 %
14.03.2023 12:02 6,9 C 6,1 C 3,3 C 95 % 996,4 hPa 0,0 l/m 0 min 2 min 124 W/m 12,9 km/h (3 Bft) 100,00 %
14.03.2023 12:04 6,9 C 6,7 C 3,3 C 95 % 996,4 hPa 0,0 l/m 0 min 0 min 119 W/m 22,5 km/h (4 Bft) 97,73 %
14.03.2023 12:07 6,9 C 6,1 C 3,3 C 95 % 996,6 hPa 0,0 l/m 0 min 0 min 95 W/m 29,0 km/h (5 Bft) 100,00 %
14.03.2023 12:08 6,9 C 6,1 C 3,3 C 95 % 996,6 hPa 0,0 l/m 0 min 0 min 87 W/m 16,1 km/h (3 Bft) 100,00 %
14.03.2023 12:12 6,9 C 6,1 C 3,3 C 95 % 996,8 hPa 0,0 l/m 0 min 0 min 56 W/m 19,3 km/h (3 Bft) 100,00 %
14.03.2023 12:14 6,9 C 6,1 C 3,3 C 95 % 996,9 hPa 0,0 l/m 0 min 2 min 61 W/m 12,9 km/h (3 Bft) 100,00 %
14.03.2023 12:16 6,9 C 6,1 C 3,3 C 95 % 997,0 hPa 0,0 l/m 0 min 0 min 66 W/m 12,9 km/h (3 Bft) 100,00 %
14.03.2023 12:18 6,9 C 6,1 C 3,3 C 95 % 997,1 hPa 0,0 l/m 0 min 0 min 68 W/m 25,7 km/h (4 Bft) 100,00 %
14.03.2023 12:20 6,9 C 6,1 C 3,3 C 95 % 997,1 hPa 0,0 l/m 0 min 2 min 91 W/m 19,3 km/h (3 Bft) 100,00 %
14.03.2023 12:22 6,9 C 6,1 C 3,3 C 95 % 997,2 hPa 0,0 l/m 0 min 2 min 114 W/m 22,5 km/h (4 Bft) 100,00 %
14.03.2023 12:24 6,8 C 6,1 C 3,3 C 95 % 997,3 hPa 0,0 l/m 0 min 2 min 74 W/m 38,6 km/h (5 Bft) 100,00 %
14.03.2023 12:26 6,7 C 6,1 C 2,8 C 95 % 997,4 hPa 0,0 l/m 0 min 0 min 61 W/m 38,6 km/h (5 Bft) 100,00 %
14.03.2023 12:28 6,7 C 6,1 C 2,8 C 95 % 997,4 hPa 0,0 l/m 0 min 0 min 74 W/m 25,7 km/h (4 Bft) 100,00 %
14.03.2023 12:30 6,7 C 6,1 C 2,8 C 95 % 997,5 hPa 0,0 l/m 0 min 0 min 147 W/m 32,2 km/h (5 Bft) 100,00 %
14.03.2023 12:32 6,7 C 6,7 C 2,8 C 95 % 997,6 hPa 0,0 l/m 0 min 0 min 162 W/m 22,5 km/h (4 Bft) 100,00 %
14.03.2023 12:34 6,7 C 6,7 C 2,8 C 95 % 997,7 hPa 0,0 l/m 0 min 0 min 151 W/m 32,2 km/h (5 Bft) 100,00 %
14.03.2023 12:36 6,7 C 6,7 C 2,8 C 94 % 997,8 hPa 0,0 l/m 0 min 0 min 127 W/m 25,7 km/h (4 Bft) 100,00 %
14.03.2023 12:38 6,7 C 6,7 C 3,3 C 94 % 997,8 hPa 0,0 l/m 0 min 0 min 133 W/m 38,6 km/h (5 Bft) 100,00 %
14.03.2023 12:40 6,7 C 6,7 C 2,8 C 94 % 997,9 hPa 0,0 l/m 0 min 0 min 130 W/m 25,7 km/h (4 Bft) 100,00 %
14.03.2023 12:42 6,7 C 6,7 C 3,3 C 94 % 997,9 hPa 0,0 l/m 0 min 0 min 129 W/m 22,5 km/h (4 Bft) 100,00 %
14.03.2023 12:44 6,7 C 6,7 C 3,3 C 94 % 998,0 hPa 0,0 l/m 0 min 0 min 150 W/m 19,3 km/h (3 Bft) 100,00 %
14.03.2023 12:46 6,7 C 6,7 C 2,8 C 94 % 998,0 hPa 0,0 l/m 0 min 0 min 116 W/m 29,0 km/h (5 Bft) 97,87 %
14.03.2023 12:48 6,7 C 6,7 C 2,8 C 94 % 998,1 hPa 0,0 l/m 0 min 0 min 102 W/m 32,2 km/h (5 Bft) 100,00 %
14.03.2023 12:50 6,7 C 6,7 C 2,8 C 94 % 998,1 hPa 0,0 l/m 0 min 0 min 92 W/m 22,5 km/h (4 Bft) 91,49 %
14.03.2023 12:52 6,7 C 6,1 C 2,8 C 94 % 998,2 hPa 0,0 l/m 0 min 0 min 89 W/m 32,2 km/h (5 Bft) 97,87 %
14.03.2023 12:54 6,6 C 6,1 C 2,8 C 93 % 998,3 hPa 0,0 l/m 0 min 0 min 86 W/m 29,0 km/h (5 Bft) 97,83 %
14.03.2023 12:56 6,6 C 6,1 C 2,8 C 93 % 998,3 hPa 0,0 l/m 0 min 0 min 82 W/m 32,2 km/h (5 Bft) 97,87 %
14.03.2023 12:58 6,6 C 6,1 C 2,8 C 93 % 998,3 hPa 0,0 l/m 0 min 0 min 81 W/m 29,0 km/h (5 Bft) 95,74 %
14.03.2023 13:00 6,6 C 6,1 C 2,8 C 93 % 998,5 hPa 0,0 l/m 0 min 0 min 73 W/m 22,5 km/h (4 Bft) 97,87 %
14.03.2023 13:02 6,6 C 6,1 C 2,8 C 92 % 998,6 hPa 0,0 l/m 0 min 0 min 64 W/m 35,4 km/h (5 Bft) 95,74 %
14.03.2023 13:04 6,6 C 6,1 C 2,8 C 92 % 998,7 hPa 0,0 l/m 0 min 0 min 60 W/m 22,5 km/h (4 Bft) 95,74 %
14.03.2023 13:06 6,5 C 6,1 C 2,8 C 92 % 998,7 hPa 0,0 l/m 0 min 0 min 61 W/m 22,5 km/h (4 Bft) 96,55 %
14.03.2023 13:08 6,5 C 6,1 C 2,8 C 92 % 998,7 hPa 0,0 l/m 0 min 0 min 70 W/m 16,1 km/h (3 Bft) 91,43 %
14.03.2023 13:10 6,5 C 6,1 C 2,8 C 92 % 998,8 hPa 0,0 l/m 0 min 0 min 69 W/m 22,5 km/h (4 Bft) 95,74 %
14.03.2023 13:12 6,5 C 6,1 C 2,8 C 92 % 999,0 hPa 0,0 l/m 0 min 0 min 80 W/m 32,2 km/h (5 Bft) 97,87 %
14.03.2023 13:14 6,5 C 5,6 C 2,2 C 92 % 999,1 hPa 0,0 l/m 0 min 0 min 78 W/m 29,0 km/h (5 Bft) 95,74 %
14.03.2023 13:16 6,4 C 5,6 C 2,2 C 91 % 999,2 hPa 0,0 l/m 0 min 0 min 92 W/m 35,4 km/h (5 Bft) 95,74 %
14.03.2023 13:18 6,4 C 6,1 C 2,2 C 91 % 999,2 hPa 0,0 l/m 0 min 0 min 156 W/m 41,8 km/h (6 Bft) 97,87 %
14.03.2023 13:20 6,4 C 6,1 C 2,8 C 91 % 999,3 hPa 0,0 l/m 0 min 0 min 256 W/m 32,2 km/h (5 Bft) 95,65 %
14.03.2023 13:22 6,5 C 6,7 C 2,8 C 91 % 999,3 hPa 0,0 l/m 0 min 0 min 283 W/m 29,0 km/h (5 Bft) 95,74 %
14.03.2023 13:24 6,6 C 7,2 C 2,8 C 91 % 999,4 hPa 0,0 l/m 0 min 0 min 236 W/m 19,3 km/h (3 Bft) 95,74 %
14.03.2023 13:26 6,6 C 6,7 C 2,8 C 91 % 999,5 hPa 0,0 l/m 0 min 0 min 203 W/m 29,0 km/h (5 Bft) 95,74 %
14.03.2023 13:28 6,7 C 6,7 C 2,8 C 91 % 999,5 hPa 0,0 l/m 0 min 2 min 197 W/m 22,5 km/h (4 Bft) 95,74 %
14.03.2023 13:30 6,7 C 6,7 C 2,8 C 91 % 999,5 hPa 0,0 l/m 0 min 2 min 156 W/m 29,0 km/h (5 Bft) 95,74 %
14.03.2023 13:32 6,7 C 6,7 C 2,8 C 91 % 999,5 hPa 0,0 l/m 0 min 2 min 153 W/m 19,3 km/h (3 Bft) 95,74 %
14.03.2023 13:34 6,8 C 6,7 C 2,8 C 91 % 999,5 hPa 0,0 l/m 0 min 2 min 158 W/m 25,7 km/h (4 Bft) 89,13 %
14.03.2023 13:36 6,8 C 7,2 C 2,8 C 91 % 999,6 hPa 0,0 l/m 0 min 2 min 238 W/m 29,0 km/h (5 Bft) 95,74 %
14.03.2023 13:38 6,8 C 8,3 C 3,3 C 91 % 999,7 hPa 0,0 l/m 2 min 2 min 389 W/m 16,1 km/h (3 Bft) 95,74 %
14.03.2023 13:40 6,9 C 8,3 C 3,3 C 91 % 999,8 hPa 0,0 l/m 2 min 0 min 349 W/m 22,5 km/h (4 Bft) 93,62 %
14.03.2023 13:42 7,0 C 7,2 C 2,8 C 91 % 1000,0 hPa 0,0 l/m 0 min 2 min 123 W/m 45,1 km/h (6 Bft) 93,62 %
14.03.2023 13:44 6,8 C 6,1 C 2,2 C 90 % 1000,3 hPa 0,2 l/m 0 min 2 min 103 W/m 41,8 km/h (6 Bft) 95,74 %
14.03.2023 13:46 6,5 C 5,6 C 1,7 C 89 % 1000,3 hPa 0,0 l/m 0 min 2 min 139 W/m 35,4 km/h (5 Bft) 94,44 %
14.03.2023 13:48 6,2 C 5,0 C 1,7 C 89 % 1000,3 hPa 0,0 l/m 0 min 2 min 124 W/m 22,5 km/h (4 Bft) 96,00 %
14.03.2023 13:50 5,9 C 5,0 C 1,7 C 89 % 1000,4 hPa 0,0 l/m 0 min 2 min 122 W/m 22,5 km/h (4 Bft) 93,48 %
14.03.2023 13:52 5,8 C 5,0 C 1,7 C 89 % 1000,5 hPa 0,0 l/m 0 min 2 min 141 W/m 19,3 km/h (3 Bft) 91,49 %
14.03.2023 13:54 5,7 C 5,0 C 1,7 C 90 % 1000,5 hPa 0,0 l/m 0 min 2 min 155 W/m 25,7 km/h (4 Bft) 93,62 %
14.03.2023 13:56 5,6 C 5,0 C 1,7 C 90 % 1000,6 hPa 0,2 l/m 0 min 2 min 141 W/m 25,7 km/h (4 Bft) 93,62 %
14.03.2023 13:58 5,6 C 5,0 C 1,7 C 90 % 1000,7 hPa 0,0 l/m 0 min 2 min 124 W/m 19,3 km/h (3 Bft) 95,74 %
14.03.2023 14:00 5,5 C 5,0 C 1,7 C 90 % 1000,7 hPa 0,0 l/m 0 min 2 min 119 W/m 32,2 km/h (5 Bft) 93,62 %
14.03.2023 14:02 5,5 C 5,0 C 1,7 C 90 % 1000,7 hPa 0,0 l/m 0 min 2 min 125 W/m 25,7 km/h (4 Bft) 93,48 %
14.03.2023 14:04 5,5 C 5,0 C 1,7 C 91 % 1000,8 hPa 0,0 l/m 0 min 2 min 137 W/m 22,5 km/h (4 Bft) 95,74 %
14.03.2023 14:06 5,5 C 5,6 C 2,2 C 91 % 1000,8 hPa 0,0 l/m 0 min 2 min 170 W/m 19,3 km/h (3 Bft) 95,74 %
14.03.2023 14:08 5,5 C 5,6 C 2,2 C 91 % 1000,9 hPa 0,0 l/m 0 min 0 min 174 W/m 19,3 km/h (3 Bft) 95,74 %
14.03.2023 14:10 5,6 C 5,6 C 2,2 C 91 % 1000,9 hPa 0,0 l/m 0 min 0 min 155 W/m 25,7 km/h (4 Bft) 93,62 %
14.03.2023 14:12 5,6 C 5,6 C 2,2 C 91 % 1001,0 hPa 0,0 l/m 0 min 0 min 166 W/m 12,9 km/h (3 Bft) 95,74 %
14.03.2023 14:14 5,6 C 5,6 C 2,2 C 91 % 1001,0 hPa 0,0 l/m 0 min 0 min 187 W/m 12,9 km/h (3 Bft) 93,62 %
14.03.2023 14:16 5,7 C 6,1 C 2,2 C 92 % 1001,1 hPa 0,0 l/m 0 min 0 min 208 W/m 16,1 km/h (3 Bft) 95,65 %
14.03.2023 14:18 5,8 C 6,7 C 2,8 C 92 % 1001,1 hPa 0,0 l/m 0 min 0 min 258 W/m 22,5 km/h (4 Bft) 97,87 %
14.03.2023 14:20 5,8 C 6,7 C 2,8 C 92 % 1001,1 hPa 0,0 l/m 2 min 0 min 278 W/m 19,3 km/h (3 Bft) 100,00 %
14.03.2023 14:22 5,9 C 6,7 C 2,8 C 92 % 1001,2 hPa 0,0 l/m 0 min 0 min 234 W/m 19,3 km/h (3 Bft) 97,87 %
14.03.2023 14:24 6,0 C 6,7 C 2,8 C 92 % 1001,3 hPa 0,0 l/m 0 min 0 min 221 W/m 25,7 km/h (4 Bft) 100,00 %
14.03.2023 14:26 6,1 C 6,7 C 3,3 C 92 % 1001,3 hPa 0,0 l/m 0 min 0 min 219 W/m 19,3 km/h (3 Bft) 100,00 %
14.03.2023 14:28 6,1 C 6,7 C 3,3 C 92 % 1001,4 hPa 0,0 l/m 0 min 0 min 212 W/m 22,5 km/h (4 Bft) 95,65 %
14.03.2023 14:30 6,2 C 6,7 C 3,3 C 92 % 1001,4 hPa 0,0 l/m 0 min 0 min 204 W/m 22,5 km/h (4 Bft) 100,00 %
14.03.2023 14:32 6,2 C 6,7 C 3,3 C 91 % 1001,4 hPa 0,0 l/m 0 min 0 min 181 W/m 19,3 km/h (3 Bft) 100,00 %
14.03.2023 14:34 6,3 C 6,7 C 3,3 C 91 % 1001,5 hPa 0,0 l/m 0 min 0 min 133 W/m 32,2 km/h (5 Bft) 97,87 %
14.03.2023 14:36 6,3 C 6,7 C 3,3 C 91 % 1001,5 hPa 0,0 l/m 0 min 0 min 138 W/m 22,5 km/h (4 Bft) 97,87 %
14.03.2023 14:38 6,3 C 6,7 C 3,3 C 90 % 1001,6 hPa 0,0 l/m 0 min 0 min 179 W/m 25,7 km/h (4 Bft) 97,87 %
14.03.2023 14:40 6,4 C 6,7 C 3,9 C 90 % 1001,5 hPa 0,0 l/m 0 min 0 min 211 W/m 22,5 km/h (4 Bft) 97,87 %
14.03.2023 14:42 6,5 C 7,2 C 3,9 C 90 % 1001,6 hPa 0,0 l/m 0 min 0 min 241 W/m 22,5 km/h (4 Bft) 97,83 %
14.03.2023 14:44 6,6 C 7,2 C 3,9 C 89 % 1001,6 hPa 0,0 l/m 0 min 0 min 247 W/m 41,8 km/h (6 Bft) 97,87 %
14.03.2023 14:46 6,6 C 7,2 C 3,9 C 88 % 1001,6 hPa 0,0 l/m 0 min 0 min 249 W/m 32,2 km/h (5 Bft) 95,74 %
14.03.2023 14:48 6,7 C 7,8 C 4,4 C 87 % 1001,6 hPa 0,0 l/m 2 min 0 min 312 W/m 25,7 km/h (4 Bft) 97,87 %
14.03.2023 14:50 6,8 C 8,3 C 4,4 C 86 % 1001,7 hPa 0,0 l/m 2 min 0 min 320 W/m 22,5 km/h (4 Bft) 95,74 %
14.03.2023 14:52 6,9 C 9,4 C 4,4 C 86 % 1001,7 hPa 0,0 l/m 2 min 0 min 323 W/m 22,5 km/h (4 Bft) 97,87 %
14.03.2023 14:54 7,1 C 10,0 C 4,4 C 85 % 1001,7 hPa 0,0 l/m 2 min 0 min 351 W/m 29,0 km/h (5 Bft) 97,83 %
14.03.2023 14:56 7,3 C 11,1 C 5,0 C 85 % 1001,8 hPa 0,0 l/m 2 min 0 min 315 W/m 22,5 km/h (4 Bft) 95,74 %
14.03.2023 14:58 7,5 C 12,2 C 5,0 C 85 % 1001,8 hPa 0,0 l/m 2 min 0 min 657 W/m 19,3 km/h (3 Bft) 97,87 %
14.03.2023 15:00 7,7 C 11,1 C 5,0 C 85 % 1001,8 hPa 0,0 l/m 2 min 0 min 522 W/m 22,5 km/h (4 Bft) 97,87 %
14.03.2023 15:02 7,8 C 10,0 C 5,0 C 83 % 1001,9 hPa 0,0 l/m 2 min 0 min 345 W/m 29,0 km/h (5 Bft) 94,55 %
14.03.2023 15:04 7,8 C 10,0 C 5,0 C 82 % 1001,9 hPa 0,0 l/m 2 min 0 min 542 W/m 35,4 km/h (5 Bft) 97,87 %
14.03.2023 15:06 7,9 C 11,7 C 5,0 C 82 % 1002,0 hPa 0,0 l/m 2 min 0 min 566 W/m 22,5 km/h (4 Bft) 97,87 %
14.03.2023 15:08 8,1 C 11,1 C 5,0 C 82 % 1002,0 hPa 0,0 l/m 2 min 0 min 547 W/m 19,3 km/h (3 Bft) 100,00 %
14.03.2023 15:10 8,2 C 11,1 C 5,0 C 81 % 1002,0 hPa 0,0 l/m 2 min 0 min 540 W/m 22,5 km/h (4 Bft) 100,00 %
14.03.2023 15:12 8,2 C 10,6 C 5,0 C 80 % 1002,1 hPa 0,0 l/m 2 min 0 min 476 W/m 19,3 km/h (3 Bft) 97,87 %
14.03.2023 15:14 8,2 C 10,0 C 5,0 C 79 % 1002,0 hPa 0,0 l/m 2 min 0 min 421 W/m 22,5 km/h (4 Bft) 97,87 %
14.03.2023 15:16 8,2 C 9,4 C 5,0 C 79 % 1002,1 hPa 0,0 l/m 2 min 0 min 257 W/m 25,7 km/h (4 Bft) 95,74 %
14.03.2023 15:18 8,2 C 8,9 C 5,0 C 79 % 1002,1 hPa 0,0 l/m 0 min 0 min 141 W/m 25,7 km/h (4 Bft) 100,00 %
14.03.2023 15:20 8,1 C 8,3 C 4,4 C 77 % 1002,1 hPa 0,0 l/m 0 min 0 min 96 W/m 25,7 km/h (4 Bft) 100,00 %
14.03.2023 15:22 8,0 C 7,8 C 4,4 C 76 % 1002,1 hPa 0,0 l/m 0 min 0 min 89 W/m 32,2 km/h (5 Bft) 100,00 %
14.03.2023 15:24 7,9 C 7,8 C 4,4 C 76 % 1002,1 hPa 0,0 l/m 0 min 0 min 110 W/m 29,0 km/h (5 Bft) 95,65 %
14.03.2023 15:26 7,8 C 7,8 C 4,4 C 76 % 1002,1 hPa 0,0 l/m 0 min 0 min 157 W/m 25,7 km/h (4 Bft) 100,00 %
14.03.2023 15:28 7,7 C 7,8 C 4,4 C 75 % 1002,2 hPa 0,0 l/m 0 min 0 min 188 W/m 29,0 km/h (5 Bft) 97,87 %
14.03.2023 15:30 7,7 C 8,3 C 4,4 C 73 % 1002,3 hPa 0,0 l/m 0 min 0 min 191 W/m 25,7 km/h (4 Bft) 100,00 %
14.03.2023 15:32 7,6 C 8,3 C 4,4 C 72 % 1002,4 hPa 0,0 l/m 0 min 0 min 196 W/m 19,3 km/h (3 Bft) 100,00 %
14.03.2023 15:34 7,6 C 8,3 C 4,4 C 71 % 1002,5 hPa 0,0 l/m 2 min 0 min 214 W/m 35,4 km/h (5 Bft) 100,00 %
14.03.2023 15:36 7,6 C 8,3 C 4,4 C 70 % 1002,6 hPa 0,0 l/m 2 min 0 min 213 W/m 16,1 km/h (3 Bft) 100,00 %
14.03.2023 15:38 7,6 C 8,3 C 4,4 C 70 % 1002,7 hPa 0,0 l/m 2 min 0 min 209 W/m 29,0 km/h (5 Bft) 100,00 %
14.03.2023 15:40 7,7 C 8,3 C 4,4 C 70 % 1002,7 hPa 0,0 l/m 2 min 0 min 211 W/m 19,3 km/h (3 Bft) 100,00 %
14.03.2023 15:42 7,7 C 8,3 C 4,4 C 69 % 1002,8 hPa 0,0 l/m 2 min 0 min 224 W/m 32,2 km/h (5 Bft) 97,87 %
14.03.2023 15:44 7,7 C 8,9 C 4,4 C 69 % 1002,9 hPa 0,0 l/m 2 min 0 min 218 W/m 22,5 km/h (4 Bft) 95,74 %
14.03.2023 15:46 7,7 C 8,3 C 4,4 C 69 % 1002,9 hPa 0,0 l/m 2 min 0 min 215 W/m 22,5 km/h (4 Bft) 97,87 %
14.03.2023 15:48 7,8 C 8,3 C 4,4 C 68 % 1002,9 hPa 0,0 l/m 2 min 0 min 211 W/m 32,2 km/h (5 Bft) 100,00 %
14.03.2023 15:50 7,8 C 8,9 C 4,4 C 69 % 1003,0 hPa 0,0 l/m 2 min 0 min 211 W/m 19,3 km/h (3 Bft) 100,00 %
14.03.2023 15:52 7,8 C 8,9 C 4,4 C 69 % 1003,1 hPa 0,0 l/m 2 min 0 min 227 W/m 22,5 km/h (4 Bft) 100,00 %
14.03.2023 15:54 7,9 C 8,9 C 4,4 C 69 % 1003,1 hPa 0,0 l/m 2 min 0 min 231 W/m 22,5 km/h (4 Bft) 100,00 %
14.03.2023 15:56 7,9 C 9,4 C 4,4 C 69 % 1003,2 hPa 0,0 l/m 2 min 0 min 243 W/m 25,7 km/h (4 Bft) 97,87 %
14.03.2023 15:58 8,0 C 9,4 C 5,0 C 69 % 1003,3 hPa 0,0 l/m 2 min 0 min 254 W/m 29,0 km/h (5 Bft) 100,00 %
14.03.2023 16:00 8,1 C 9,4 C 5,0 C 67 % 1003,4 hPa 0,0 l/m 2 min 0 min 248 W/m 25,7 km/h (4 Bft) 100,00 %
14.03.2023 16:02 8,1 C 9,4 C 4,4 C 67 % 1003,4 hPa 0,0 l/m 2 min 0 min 265 W/m 25,7 km/h (4 Bft) 97,83 %
14.03.2023 16:04 8,1 C 10,0 C 5,0 C 66 % 1003,5 hPa 0,0 l/m 2 min 0 min 311 W/m 25,7 km/h (4 Bft) 100,00 %
14.03.2023 16:06 8,2 C 9,4 C 4,4 C 65 % 1003,5 hPa 0,0 l/m 2 min 0 min 342 W/m 25,7 km/h (4 Bft) 100,00 %
14.03.2023 16:08 8,2 C 9,4 C 4,4 C 65 % 1003,5 hPa 0,0 l/m 2 min 0 min 252 W/m 19,3 km/h (3 Bft) 100,00 %
14.03.2023 16:10 8,2 C 8,9 C 4,4 C 65 % 1003,6 hPa 0,0 l/m 2 min 0 min 213 W/m 25,7 km/h (4 Bft) 100,00 %
14.03.2023 16:12 8,2 C 8,9 C 4,4 C 65 % 1003,7 hPa 0,0 l/m 2 min 0 min 199 W/m 12,9 km/h (3 Bft) 100,00 %
14.03.2023 16:14 8,2 C 8,9 C 4,4 C 66 % 1003,7 hPa 0,0 l/m 2 min 0 min 195 W/m 12,9 km/h (3 Bft) 100,00 %
14.03.2023 16:16 8,2 C 8,3 C 4,4 C 65 % 1003,7 hPa 0,0 l/m 2 min 0 min 190 W/m 19,3 km/h (3 Bft) 100,00 %
14.03.2023 16:18 8,1 C 8,3 C 4,4 C 65 % 1003,8 hPa 0,0 l/m 2 min 0 min 195 W/m 29,0 km/h (5 Bft) 100,00 %
14.03.2023 16:20 8,1 C 8,3 C 4,4 C 64 % 1003,9 hPa 0,0 l/m 2 min 0 min 180 W/m 32,2 km/h (5 Bft) 97,87 %
14.03.2023 16:22 8,1 C 8,3 C 4,4 C 63 % 1003,9 hPa 0,0 l/m 2 min 0 min 170 W/m 32,2 km/h (5 Bft) 97,87 %
14.03.2023 16:24 8,1 C 8,3 C 4,4 C 63 % 1004,0 hPa 0,0 l/m 2 min 0 min 167 W/m 22,5 km/h (4 Bft) 51,11 %
14.03.2023 16:26 8,0 C 8,3 C 4,4 C 64 % 1004,1 hPa 0,0 l/m 2 min 0 min 165 W/m 12,9 km/h (3 Bft) 100,00 %
14.03.2023 16:28 8,0 C 7,8 C 4,4 C 65 % 1004,0 hPa 0,0 l/m 0 min 0 min 152 W/m 19,3 km/h (3 Bft) 97,87 %
14.03.2023 16:30 8,0 C 7,8 C 4,4 C 65 % 1004,1 hPa 0,0 l/m 0 min 0 min 145 W/m 25,7 km/h (4 Bft) 97,83 %
14.03.2023 16:32 7,9 C 7,8 C 4,4 C 65 % 1004,2 hPa 0,0 l/m 0 min 0 min 139 W/m 19,3 km/h (3 Bft) 95,74 %
14.03.2023 16:34 7,9 C 7,8 C 4,4 C 66 % 1004,3 hPa 0,0 l/m 0 min 0 min 137 W/m 19,3 km/h (3 Bft) 95,74 %
14.03.2023 16:36 7,9 C 7,8 C 4,4 C 65 % 1004,3 hPa 0,0 l/m 0 min 0 min 137 W/m 29,0 km/h (5 Bft) 97,87 %
14.03.2023 16:38 7,8 C 7,8 C 3,9 C 64 % 1004,4 hPa 0,0 l/m 0 min 0 min 136 W/m 16,1 km/h (3 Bft) 95,74 %
14.03.2023 16:40 7,8 C 7,8 C 3,9 C 65 % 1004,4 hPa 0,0 l/m 0 min 0 min 134 W/m 25,7 km/h (4 Bft) 93,62 %
14.03.2023 16:42 7,8 C 7,8 C 3,9 C 64 % 1004,4 hPa 0,0 l/m 0 min 0 min 128 W/m 29,0 km/h (5 Bft) 95,74 %
14.03.2023 16:44 7,7 C 7,2 C 3,9 C 64 % 1004,5 hPa 0,0 l/m 0 min 0 min 124 W/m 25,7 km/h (4 Bft) 95,65 %
14.03.2023 16:46 7,7 C 7,2 C 3,9 C 64 % 1004,5 hPa 0,0 l/m 0 min 0 min 117 W/m 25,7 km/h (4 Bft) 95,74 %
14.03.2023 16:48 7,7 C 7,2 C 3,9 C 65 % 1004,6 hPa 0,0 l/m 0 min 0 min 112 W/m 25,7 km/h (4 Bft) 93,62 %
14.03.2023 16:50 7,6 C 7,2 C 3,9 C 65 % 1004,7 hPa 0,0 l/m 0 min 0 min 106 W/m 16,1 km/h (3 Bft) 91,49 %
14.03.2023 16:52 7,6 C 7,2 C 3,9 C 64 % 1004,8 hPa 0,0 l/m 0 min 0 min 102 W/m 22,5 km/h (4 Bft) 95,74 %
14.03.2023 16:54 7,5 C 7,2 C 3,9 C 63 % 1004,7 hPa 0,0 l/m 0 min 0 min 98 W/m 22,5 km/h (4 Bft) 95,65 %
14.03.2023 16:56 7,4 C 7,2 C 3,3 C 63 % 1004,8 hPa 0,0 l/m 0 min 0 min 93 W/m 22,5 km/h (4 Bft) 93,62 %
14.03.2023 16:58 7,4 C 7,2 C 3,3 C 64 % 1004,8 hPa 0,0 l/m 0 min 0 min 91 W/m 22,5 km/h (4 Bft) 93,48 %
14.03.2023 17:00 7,4 C 7,2 C 3,3 C 64 % 1004,9 hPa 0,0 l/m 0 min 0 min 90 W/m 25,7 km/h (4 Bft) 93,62 %
14.03.2023 17:02 7,3 C 6,7 C 3,3 C 63 % 1004,9 hPa 0,0 l/m 0 min 0 min 88 W/m 32,2 km/h (5 Bft) 91,49 %
14.03.2023 17:04 7,3 C 6,7 C 3,3 C 63 % 1005,0 hPa 0,0 l/m 0 min 0 min 88 W/m 32,2 km/h (5 Bft) 93,62 %
14.03.2023 17:06 7,3 C 6,7 C 3,3 C 63 % 1005,0 hPa 0,0 l/m 0 min 0 min 87 W/m 35,4 km/h (5 Bft) 91,49 %
14.03.2023 17:08 7,3 C 6,7 C 3,3 C 62 % 1005,0 hPa 0,0 l/m 0 min 0 min 84 W/m 25,7 km/h (4 Bft) 93,62 %
14.03.2023 17:10 7,2 C 6,7 C 3,3 C 62 % 1005,1 hPa 0,0 l/m 0 min 0 min 84 W/m 22,5 km/h (4 Bft) 95,65 %
14.03.2023 17:12 7,2 C 6,7 C 3,3 C 62 % 1005,2 hPa 0,0 l/m 0 min 0 min 83 W/m 22,5 km/h (4 Bft) 95,74 %
14.03.2023 17:14 7,2 C 6,7 C 3,3 C 63 % 1005,3 hPa 0,0 l/m 0 min 0 min 81 W/m 19,3 km/h (3 Bft) 97,87 %
14.03.2023 17:16 7,2 C 6,7 C 3,3 C 64 % 1005,4 hPa 0,0 l/m 0 min 0 min 77 W/m 22,5 km/h (4 Bft) 95,74 %
14.03.2023 17:18 7,2 C 6,7 C 3,3 C 63 % 1005,5 hPa 0,0 l/m 0 min 0 min 72 W/m 32,2 km/h (5 Bft) 95,74 %
14.03.2023 17:20 7,2 C 6,7 C 3,3 C 64 % 1005,5 hPa 0,0 l/m 0 min 0 min 69 W/m 19,3 km/h (3 Bft) 94,29 %
14.03.2023 17:22 7,2 C 6,7 C 3,3 C 64 % 1005,6 hPa 0,0 l/m 0 min 0 min 69 W/m 12,9 km/h (3 Bft) 96,61 %
14.03.2023 17:24 7,2 C 6,7 C 3,3 C 65 % 1005,7 hPa 0,0 l/m 0 min 0 min 66 W/m 16,1 km/h (3 Bft) 95,74 %
14.03.2023 17:26 7,2 C 6,7 C 3,3 C 65 % 1005,7 hPa 0,0 l/m 0 min 0 min 63 W/m 19,3 km/h (3 Bft) 100,00 %
14.03.2023 17:28 7,1 C 6,7 C 3,3 C 64 % 1005,8 hPa 0,0 l/m 0 min 0 min 59 W/m 16,1 km/h (3 Bft) 100,00 %
14.03.2023 17:30 7,1 C 6,7 C 3,3 C 64 % 1005,8 hPa 0,0 l/m 0 min 0 min 55 W/m 19,3 km/h (3 Bft) 100,00 %
14.03.2023 17:32 7,1 C 6,7 C 2,8 C 65 % 1005,8 hPa 0,0 l/m 0 min 0 min 51 W/m 16,1 km/h (3 Bft) 100,00 %
14.03.2023 17:34 7,0 C 6,7 C 2,8 C 64 % 1005,9 hPa 0,0 l/m 0 min 0 min 47 W/m 22,5 km/h (4 Bft) 100,00 %
14.03.2023 17:36 7,0 C 6,7 C 2,8 C 63 % 1005,8 hPa 0,0 l/m 0 min 0 min 44 W/m 25,7 km/h (4 Bft) 97,87 %
14.03.2023 17:38 6,9 C 6,7 C 2,8 C 63 % 1005,9 hPa 0,0 l/m 0 min 0 min 40 W/m 25,7 km/h (4 Bft) 100,00 %
14.03.2023 17:40 6,9 C 6,1 C 2,8 C 63 % 1005,9 hPa 0,0 l/m 0 min 0 min 37 W/m 19,3 km/h (3 Bft) 100,00 %
14.03.2023 17:42 6,9 C 6,1 C 2,8 C 63 % 1006,0 hPa 0,0 l/m 0 min 0 min 35 W/m 22,5 km/h (4 Bft) 100,00 %
14.03.2023 17:44 6,9 C 6,1 C 2,8 C 63 % 1006,0 hPa 0,0 l/m 0 min 0 min 33 W/m 22,5 km/h (4 Bft) 100,00 %
14.03.2023 17:46 6,8 C 6,1 C 2,8 C 63 % 1006,1 hPa 0,0 l/m 0 min 0 min 31 W/m 16,1 km/h (3 Bft) 100,00 %
14.03.2023 17:48 6,8 C 6,1 C 2,8 C 63 % 1006,1 hPa 0,0 l/m 0 min 0 min 28 W/m 12,9 km/h (3 Bft) 100,00 %
14.03.2023 17:50 6,8 C 6,1 C 2,8 C 64 % 1006,2 hPa 0,0 l/m 0 min 0 min 26 W/m 22,5 km/h (4 Bft) 100,00 %
14.03.2023 17:52 6,8 C 6,1 C 2,8 C 64 % 1006,2 hPa 0,0 l/m 0 min 0 min 23 W/m 19,3 km/h (3 Bft) 100,00 %
14.03.2023 17:54 6,8 C 6,1 C 2,8 C 64 % 1006,2 hPa 0,0 l/m 0 min 0 min 22 W/m 22,5 km/h (4 Bft) 93,62 %
14.03.2023 17:56 6,7 C 6,1 C 2,8 C 64 % 1006,3 hPa 0,0 l/m 0 min 0 min 21 W/m 16,1 km/h (3 Bft) 100,00 %
14.03.2023 17:58 6,7 C 6,1 C 2,8 C 64 % 1006,3 hPa 0,0 l/m 0 min 0 min 21 W/m 19,3 km/h (3 Bft) 100,00 %
14.03.2023 18:00 6,7 C 6,1 C 2,8 C 64 % 1006,3 hPa 0,0 l/m 0 min 0 min 21 W/m 12,9 km/h (3 Bft) 100,00 %
14.03.2023 18:02 6,6 C 6,1 C 2,2 C 65 % 1006,4 hPa 0,0 l/m 0 min 0 min 21 W/m 16,1 km/h (3 Bft) 100,00 %
14.03.2023 18:04 6,6 C 6,1 C 2,2 C 65 % 1006,5 hPa 0,0 l/m 0 min 0 min 19 W/m 22,5 km/h (4 Bft) 100,00 %
14.03.2023 18:07 6,6 C 6,1 C 2,2 C 65 % 1006,6 hPa 0,0 l/m 0 min 0 min 15 W/m 19,3 km/h (3 Bft) 98,78 %
14.03.2023 18:08 6,6 C 6,1 C 2,2 C 66 % 1006,6 hPa 0,0 l/m 0 min 0 min 12 W/m 19,3 km/h (3 Bft) 100,00 %
14.03.2023 18:12 6,5 C 5,6 C 2,2 C 66 % 1006,7 hPa 0,0 l/m 0 min 0 min 10 W/m 19,3 km/h (3 Bft) 100,00 %
14.03.2023 18:14 6,5 C 5,6 C 2,2 C 67 % 1006,8 hPa 0,0 l/m 0 min 0 min 8 W/m 12,9 km/h (3 Bft) 97,87 %
14.03.2023 18:16 6,5 C 5,6 C 2,2 C 67 % 1006,9 hPa 0,0 l/m 0 min 0 min 7 W/m 16,1 km/h (3 Bft) 100,00 %
14.03.2023 18:18 6,4 C 5,6 C 2,2 C 67 % 1006,9 hPa 0,0 l/m 0 min 0 min 7 W/m 25,7 km/h (4 Bft) 100,00 %
14.03.2023 18:20 6,4 C 5,6 C 2,2 C 67 % 1006,9 hPa 0,0 l/m 0 min 0 min 6 W/m 35,4 km/h (5 Bft) 97,87 %
14.03.2023 18:22 6,4 C 5,6 C 2,2 C 68 % 1007,0 hPa 0,0 l/m 0 min 0 min 4 W/m 19,3 km/h (3 Bft) 95,74 %
14.03.2023 18:24 6,3 C 5,6 C 2,2 C 68 % 1007,2 hPa 0,0 l/m 0 min 0 min 0 W/m 19,3 km/h (3 Bft) 100,00 %
14.03.2023 18:26 6,3 C 5,6 C 2,2 C 68 % 1007,3 hPa 0,0 l/m 0 min 0 min 0 W/m 25,7 km/h (4 Bft) 100,00 %
14.03.2023 18:28 6,2 C 5,6 C 2,2 C 68 % 1007,3 hPa 0,0 l/m 0 min 0 min 0 W/m 22,5 km/h (4 Bft) 100,00 %
14.03.2023 18:30 6,2 C 5,6 C 2,2 C 68 % 1007,4 hPa 0,0 l/m 0 min 0 min 0 W/m 22,5 km/h (4 Bft) 100,00 %
14.03.2023 18:32 6,2 C 5,6 C 2,2 C 67 % 1007,5 hPa 0,0 l/m 0 min 0 min 0 W/m 22,5 km/h (4 Bft) 100,00 %
14.03.2023 18:34 6,2 C 5,6 C 2,2 C 67 % 1007,4 hPa 0,0 l/m 0 min 0 min 3 W/m 25,7 km/h (4 Bft) 100,00 %
14.03.2023 18:36 6,1 C 5,6 C 2,2 C 66 % 1007,5 hPa 0,0 l/m 0 min 0 min 5 W/m 22,5 km/h (4 Bft) 97,83 %
14.03.2023 18:38 6,1 C 5,6 C 2,2 C 67 % 1007,5 hPa 0,0 l/m 0 min 0 min 1 W/m 22,5 km/h (4 Bft) 100,00 %
14.03.2023 18:40 6,1 C 5,6 C 2,2 C 67 % 1007,6 hPa 0,0 l/m 0 min 0 min 0 W/m 19,3 km/h (3 Bft) 100,00 %
14.03.2023 18:42 6,1 C 5,6 C 1,7 C 66 % 1007,7 hPa 0,0 l/m 0 min 0 min 0 W/m 19,3 km/h (3 Bft) 100,00 %
14.03.2023 18:44 6,0 C 5,6 C 1,7 C 66 % 1007,7 hPa 0,0 l/m 0 min 0 min 0 W/m 22,5 km/h (4 Bft) 100,00 %
14.03.2023 18:46 5,9 C 5,0 C 1,7 C 66 % 1007,8 hPa 0,0 l/m 0 min 0 min 0 W/m 16,1 km/h (3 Bft) 100,00 %
14.03.2023 18:48 5,9 C 5,0 C 1,7 C 66 % 1007,8 hPa 0,0 l/m 0 min 0 min 0 W/m 25,7 km/h (4 Bft) 97,87 %
14.03.2023 18:50 5,9 C 5,0 C 1,7 C 65 % 1007,8 hPa 0,0 l/m 0 min 0 min 0 W/m 19,3 km/h (3 Bft) 95,65 %
14.03.2023 18:52 5,8 C 5,0 C 1,7 C 65 % 1007,9 hPa 0,0 l/m 0 min 0 min 0 W/m 22,5 km/h (4 Bft) 95,74 %
14.03.2023 18:54 5,8 C 5,0 C 1,7 C 65 % 1007,9 hPa 0,0 l/m 0 min 0 min 0 W/m 19,3 km/h (3 Bft) 97,87 %
14.03.2023 18:56 5,8 C 5,0 C 1,7 C 65 % 1008,0 hPa 0,0 l/m 0 min 0 min 0 W/m 22,5 km/h (4 Bft) 97,87 %
14.03.2023 18:58 5,7 C 5,0 C 1,7 C 65 % 1008,1 hPa 0,0 l/m 0 min 0 min 0 W/m 16,1 km/h (3 Bft) 97,87 %
14.03.2023 19:00 5,7 C 5,0 C 1,7 C 66 % 1008,1 hPa 0,0 l/m 0 min 0 min 0 W/m 12,9 km/h (3 Bft) 95,74 %
14.03.2023 19:02 5,7 C 5,0 C 1,7 C 66 % 1008,2 hPa 0,0 l/m 0 min 0 min 0 W/m 16,1 km/h (3 Bft) 93,62 %
14.03.2023 19:04 5,7 C 5,0 C 1,7 C 66 % 1008,2 hPa 0,0 l/m 0 min 0 min 0 W/m 16,1 km/h (3 Bft) 97,83 %
14.03.2023 19:06 5,7 C 5,0 C 1,7 C 67 % 1008,5 hPa 0,0 l/m 0 min 0 min 0 W/m 22,5 km/h (4 Bft) 96,61 %
14.03.2023 19:08 5,6 C 5,0 C 1,7 C 67 % 1008,4 hPa 0,0 l/m 0 min 0 min 0 W/m 12,9 km/h (3 Bft) 97,14 %
14.03.2023 19:10 5,6 C 5,0 C 1,7 C 68 % 1008,5 hPa 0,0 l/m 0 min 0 min 0 W/m 9,7 km/h (2 Bft) 95,74 %
14.03.2023 19:12 5,6 C 5,0 C 1,1 C 69 % 1008,6 hPa 0,0 l/m 0 min 0 min 0 W/m 12,9 km/h (3 Bft) 95,74 %
14.03.2023 19:14 5,5 C 4,4 C 1,1 C 69 % 1008,7 hPa 0,0 l/m 0 min 0 min 0 W/m 12,9 km/h (3 Bft) 97,87 %
14.03.2023 19:16 5,5 C 4,4 C 1,1 C 69 % 1008,6 hPa 0,0 l/m 0 min 0 min 0 W/m 9,7 km/h (2 Bft) 95,74 %
14.03.2023 19:18 5,4 C 4,4 C 1,1 C 70 % 1008,7 hPa 0,0 l/m 0 min 0 min 0 W/m 12,9 km/h (3 Bft) 97,87 %
14.03.2023 19:20 5,4 C 4,4 C 1,1 C 70 % 1008,7 hPa 0,0 l/m 0 min 0 min 0 W/m 12,9 km/h (3 Bft) 95,74 %
14.03.2023 19:22 5,4 C 4,4 C 1,1 C 71 % 1008,7 hPa 0,0 l/m 0 min 0 min 0 W/m 16,1 km/h (3 Bft) 95,74 %
14.03.2023 19:24 5,3 C 4,4 C 1,1 C 70 % 1008,8 hPa 0,0 l/m 0 min 0 min 0 W/m 16,1 km/h (3 Bft) 95,74 %
14.03.2023 19:26 5,3 C 4,4 C 1,1 C 71 % 1008,8 hPa 0,0 l/m 0 min 0 min 0 W/m 9,7 km/h (2 Bft) 97,83 %
14.03.2023 19:28 5,3 C 4,4 C 1,1 C 71 % 1008,9 hPa 0,0 l/m 0 min 0 min 0 W/m 12,9 km/h (3 Bft) 91,49 %
14.03.2023 19:30 5,3 C 4,4 C 1,1 C 71 % 1008,9 hPa 0,0 l/m 0 min 0 min 0 W/m 19,3 km/h (3 Bft) 93,62 %
14.03.2023 19:32 5,3 C 4,4 C 1,1 C 71 % 1008,9 hPa 0,0 l/m 0 min 0 min 0 W/m 9,7 km/h (2 Bft) 95,74 %
14.03.2023 19:34 5,2 C 4,4 C 1,1 C 71 % 1009,0 hPa 0,0 l/m 0 min 0 min 0 W/m 9,7 km/h (2 Bft) 95,74 %
14.03.2023 19:36 5,2 C 4,4 C 1,1 C 71 % 1009,1 hPa 0,0 l/m 0 min 0 min 0 W/m 9,7 km/h (2 Bft) 95,74 %
14.03.2023 19:38 5,2 C 4,4 C 1,1 C 71 % 1009,1 hPa 0,0 l/m 0 min 0 min 0 W/m 16,1 km/h (3 Bft) 95,65 %
14.03.2023 19:40 5,2 C 4,4 C 1,1 C 71 % 1009,1 hPa 0,0 l/m 0 min 0 min 0 W/m 9,7 km/h (2 Bft) 93,62 %
14.03.2023 19:42 5,1 C 4,4 C 1,1 C 71 % 1009,2 hPa 0,0 l/m 0 min 0 min 0 W/m 9,7 km/h (2 Bft) 93,62 %
14.03.2023 19:44 5,1 C 4,4 C 1,1 C 71 % 1009,2 hPa 0,0 l/m 0 min 0 min 0 W/m 9,7 km/h (2 Bft) 95,74 %
14.03.2023 19:46 5,1 C 4,4 C 1,1 C 71 % 1009,3 hPa 0,0 l/m 0 min 0 min 0 W/m 9,7 km/h (2 Bft) 93,62 %
14.03.2023 19:48 5,1 C 4,4 C 1,1 C 71 % 1009,3 hPa 0,0 l/m 0 min 0 min 0 W/m 12,9 km/h (3 Bft) 95,74 %
14.03.2023 19:50 5,1 C 4,4 C 1,1 C 71 % 1009,3 hPa 0,0 l/m 0 min 0 min 0 W/m 12,9 km/h (3 Bft) 95,74 %
14.03.2023 19:52 5,1 C 4,4 C 1,1 C 71 % 1009,3 hPa 0,0 l/m 0 min 0 min 0 W/m 12,9 km/h (3 Bft) 96,23 %
14.03.2023 19:54 5,0 C 4,4 C 1,1 C 71 % 1009,3 hPa 0,0 l/m 0 min 0 min 0 W/m 9,7 km/h (2 Bft) 95,74 %
14.03.2023 19:56 5,0 C 4,4 C 1,1 C 71 % 1009,3 hPa 0,0 l/m 0 min 0 min 0 W/m 6,4 km/h (2 Bft) 95,65 %
14.03.2023 19:58 4,9 C 4,4 C 1,1 C 72 % 1009,4 hPa 0,0 l/m 0 min 0 min 0 W/m 6,4 km/h (2 Bft) 96,00 %
14.03.2023 20:00 4,9 C 4,4 C 0,6 C 72 % 1009,4 hPa 0,0 l/m 0 min 0 min 0 W/m 6,4 km/h (2 Bft) 95,74 %
14.03.2023 20:02 4,9 C 4,4 C 0,6 C 72 % 1009,5 hPa 0,0 l/m 0 min 0 min 0 W/m 9,7 km/h (2 Bft) 95,74 %
14.03.2023 20:04 4,9 C 3,9 C 0,6 C 72 % 1009,5 hPa 0,0 l/m 0 min 0 min 0 W/m 9,7 km/h (2 Bft) 97,87 %
14.03.2023 20:06 4,9 C 4,4 C 0,6 C 72 % 1009,7 hPa 0,0 l/m 0 min 0 min 0 W/m 12,9 km/h (3 Bft) 95,74 %
14.03.2023 20:08 4,9 C 4,4 C 0,6 C 72 % 1009,7 hPa 0,0 l/m 0 min 0 min 0 W/m 9,7 km/h (2 Bft) 97,83 %
14.03.2023 20:10 4,9 C 4,4 C 0,6 C 72 % 1009,7 hPa 0,0 l/m 0 min 0 min 0 W/m 9,7 km/h (2 Bft) 97,87 %
14.03.2023 20:12 4,8 C 4,4 C 0,6 C 72 % 1009,8 hPa 0,0 l/m 0 min 0 min 0 W/m 12,9 km/h (3 Bft) 97,14 %
14.03.2023 20:14 4,8 C 4,4 C 0,6 C 72 % 1009,8 hPa 0,0 l/m 0 min 0 min 0 W/m 9,7 km/h (2 Bft) 98,31 %
14.03.2023 20:16 4,8 C 3,9 C 0,6 C 72 % 1009,8 hPa 0,0 l/m 0 min 0 min 0 W/m 12,9 km/h (3 Bft) 97,87 %
14.03.2023 20:18 4,8 C 3,9 C 0,6 C 72 % 1009,8 hPa 0,0 l/m 0 min 0 min 0 W/m 9,7 km/h (2 Bft) 100,00 %
14.03.2023 20:20 4,8 C 3,9 C 0,6 C 72 % 1009,9 hPa 0,0 l/m 0 min 0 min 0 W/m 9,7 km/h (2 Bft) 98,31 %
14.03.2023 20:22 4,8 C 3,9 C 0,6 C 72 % 1009,9 hPa 0,0 l/m 0 min 0 min 0 W/m 9,7 km/h (2 Bft) 97,14 %
14.03.2023 20:24 4,8 C 3,9 C 0,6 C 73 % 1009,9 hPa 0,0 l/m 0 min 0 min 0 W/m 9,7 km/h (2 Bft) 98,28 %
14.03.2023 20:26 4,8 C 3,9 C 0,6 C 73 % 1009,9 hPa 0,0 l/m 0 min 0 min 0 W/m 9,7 km/h (2 Bft) 94,29 %
14.03.2023 20:28 4,7 C 3,9 C 0,6 C 73 % 1010,0 hPa 0,0 l/m 0 min 0 min 0 W/m 3,2 km/h (1 Bft) 100,00 %
14.03.2023 20:30 4,7 C 3,9 C 0,6 C 73 % 1010,0 hPa 0,0 l/m 0 min 0 min 0 W/m 9,7 km/h (2 Bft) 97,92 %
14.03.2023 20:32 4,7 C 3,9 C 0,6 C 73 % 1010,1 hPa 0,0 l/m 0 min 0 min 0 W/m 6,4 km/h (2 Bft) 100,00 %
14.03.2023 20:34 4,6 C 3,9 C 0,6 C 74 % 1010,2 hPa 0,0 l/m 0 min 0 min 0 W/m 6,4 km/h (2 Bft) 100,00 %
14.03.2023 20:36 4,6 C 3,9 C 0,6 C 74 % 1010,1 hPa 0,0 l/m 0 min 0 min 0 W/m 6,4 km/h (2 Bft) 97,87 %
14.03.2023 20:38 4,6 C 3,9 C 0,6 C 74 % 1010,2 hPa 0,0 l/m 0 min 0 min 0 W/m 6,4 km/h (2 Bft) 97,87 %
14.03.2023 20:40 4,6 C 3,9 C 0,6 C 74 % 1010,2 hPa 0,0 l/m 0 min 0 min 0 W/m 9,7 km/h (2 Bft) 97,96 %
14.03.2023 20:42 4,5 C 3,9 C 0,6 C 74 % 1010,3 hPa 0,0 l/m 0 min 0 min 0 W/m 12,9 km/h (3 Bft) 95,74 %
14.03.2023 20:44 4,5 C 3,9 C 0,6 C 74 % 1010,3 hPa 0,0 l/m 0 min 0 min 0 W/m 6,4 km/h (2 Bft) 95,74 %
14.03.2023 20:46 4,5 C 3,9 C 0,6 C 74 % 1010,3 hPa 0,0 l/m 0 min 0 min 0 W/m 6,4 km/h (2 Bft) 97,87 %
14.03.2023 20:48 4,5 C 3,9 C 0,6 C 74 % 1010,3 hPa 0,0 l/m 0 min 0 min 0 W/m 3,2 km/h (1 Bft) 97,87 %
14.03.2023 20:50 4,5 C 3,9 C 0,6 C 75 % 1010,4 hPa 0,0 l/m 0 min 0 min 0 W/m 6,4 km/h (2 Bft) 97,83 %
14.03.2023 20:52 4,6 C 3,9 C 0,6 C 75 % 1010,4 hPa 0,0 l/m 0 min 0 min 0 W/m 6,4 km/h (2 Bft) 97,92 %
14.03.2023 20:54 4,6 C 3,9 C 0,6 C 75 % 1010,4 hPa 0,0 l/m 0 min 0 min 0 W/m 6,4 km/h (2 Bft) 93,62 %
14.03.2023 20:56 4,6 C 3,9 C 0,6 C 75 % 1010,5 hPa 0,0 l/m 0 min 0 min 0 W/m 12,9 km/h (3 Bft) 97,87 %
14.03.2023 20:58 4,6 C 3,9 C 0,6 C 74 % 1010,5 hPa 0,0 l/m 0 min 0 min 0 W/m 3,2 km/h (1 Bft) 95,74 %
14.03.2023 21:00 4,6 C 3,9 C 0,6 C 74 % 1010,4 hPa 0,0 l/m 0 min 0 min 0 W/m 6,4 km/h (2 Bft) 97,83 %
14.03.2023 21:02 4,6 C 3,9 C 0,6 C 74 % 1010,5 hPa 0,0 l/m 0 min 0 min 0 W/m 6,4 km/h (2 Bft) 97,87 %
14.03.2023 21:04 4,6 C 3,9 C 0,6 C 74 % 1010,5 hPa 0,0 l/m 0 min 0 min 0 W/m 3,2 km/h (1 Bft) 97,87 %
14.03.2023 21:06 4,6 C 3,9 C 0,0 C 74 % 1010,5 hPa 0,0 l/m 0 min 0 min 0 W/m 3,2 km/h (1 Bft) 97,87 %
14.03.2023 21:08 4,6 C 3,9 C 0,6 C 74 % 1010,6 hPa 0,0 l/m 0 min 0 min 0 W/m 6,4 km/h (2 Bft) 97,87 %
14.03.2023 21:10 4,6 C 3,9 C 0,6 C 73 % 1010,6 hPa 0,0 l/m 0 min 0 min 0 W/m 6,4 km/h (2 Bft) 100,00 %
14.03.2023 21:12 4,6 C 3,9 C 0,0 C 73 % 1010,6 hPa 0,0 l/m 0 min 0 min 0 W/m 6,4 km/h (2 Bft) 100,00 %
14.03.2023 21:14 4,6 C 3,9 C 0,0 C 73 % 1010,7 hPa 0,0 l/m 0 min 0 min 0 W/m 3,2 km/h (1 Bft) 100,00 %
14.03.2023 21:16 4,6 C 3,9 C 0,0 C 73 % 1010,7 hPa 0,0 l/m 0 min 0 min 0 W/m 6,4 km/h (2 Bft) 100,00 %
14.03.2023 21:18 4,5 C 3,3 C 0,0 C 73 % 1010,7 hPa 0,0 l/m 0 min 0 min 0 W/m 6,4 km/h (2 Bft) 100,00 %
14.03.2023 21:20 4,4 C 3,9 C 0,0 C 74 % 1010,8 hPa 0,0 l/m 0 min 0 min 0 W/m 6,4 km/h (2 Bft) 100,00 %
14.03.2023 21:22 4,4 C 3,3 C 0,0 C 74 % 1010,8 hPa 0,0 l/m 0 min 0 min 0 W/m 3,2 km/h (1 Bft) 100,00 %
14.03.2023 21:24 4,4 C 3,3 C 0,0 C 74 % 1010,8 hPa 0,0 l/m 0 min 0 min 0 W/m 6,4 km/h (2 Bft) 100,00 %
14.03.2023 21:26 4,4 C 3,3 C 0,0 C 74 % 1010,8 hPa 0,0 l/m 0 min 0 min 0 W/m 6,4 km/h (2 Bft) 97,62 %
14.03.2023 21:28 4,4 C 3,3 C 0,0 C 74 % 1010,8 hPa 0,0 l/m 0 min 0 min 0 W/m 3,2 km/h (1 Bft) 97,87 %
14.03.2023 21:30 4,3 C 3,3 C 0,0 C 74 % 1010,8 hPa 0,0 l/m 0 min 0 min 0 W/m 6,4 km/h (2 Bft) 98,00 %
14.03.2023 21:32 4,2 C 3,3 C 0,0 C 74 % 1010,8 hPa 0,0 l/m 0 min 0 min 0 W/m 6,4 km/h (2 Bft) 100,00 %
14.03.2023 21:34 4,2 C 3,3 C 0,0 C 74 % 1010,8 hPa 0,0 l/m 0 min 0 min 0 W/m 9,7 km/h (2 Bft) 100,00 %
14.03.2023 21:36 4,2 C 3,3 C 0,0 C 74 % 1010,8 hPa 0,0 l/m 0 min 0 min 0 W/m 6,4 km/h (2 Bft) 100,00 %
14.03.2023 21:38 4,2 C 3,3 C 0,0 C 74 % 1010,8 hPa 0,0 l/m 0 min 0 min 0 W/m 6,4 km/h (2 Bft) 97,87 %
14.03.2023 21:40 4,1 C 3,3 C 0,0 C 74 % 1010,8 hPa 0,0 l/m 0 min 0 min 0 W/m 3,2 km/h (1 Bft) 100,00 %
14.03.2023 21:42 4,1 C 3,3 C 0,0 C 74 % 1010,8 hPa 0,0 l/m 0 min 0 min 0 W/m 6,4 km/h (2 Bft) 100,00 %
14.03.2023 21:44 4,1 C 3,3 C 0,0 C 74 % 1010,9 hPa 0,0 l/m 0 min 0 min 0 W/m 3,2 km/h (1 Bft) 95,74 %
14.03.2023 21:46 4,1 C 3,3 C 0,0 C 74 % 1010,9 hPa 0,0 l/m 0 min 0 min 0 W/m 6,4 km/h (2 Bft) 98,00 %
14.03.2023 21:48 4,0 C 2,8 C 0,0 C 74 % 1010,9 hPa 0,0 l/m 0 min 0 min 0 W/m 3,2 km/h (1 Bft) 97,87 %
14.03.2023 21:50 3,9 C 2,8 C -0,6 C 74 % 1010,9 hPa 0,0 l/m 0 min 0 min 0 W/m 3,2 km/h (1 Bft) 97,87 %
14.03.2023 21:52 3,9 C 2,8 C -0,6 C 74 % 1010,9 hPa 0,0 l/m 0 min 0 min 0 W/m 6,4 km/h (2 Bft) 97,87 %
14.03.2023 21:54 3,9 C 2,8 C -0,6 C 74 % 1011,0 hPa 0,0 l/m 0 min 0 min 0 W/m 6,4 km/h (2 Bft) 95,74 %
14.03.2023 21:56 3,8 C 2,8 C -0,6 C 74 % 1011,1 hPa 0,0 l/m 0 min 0 min 0 W/m 6,4 km/h (2 Bft) 97,87 %
14.03.2023 21:58 3,8 C 2,8 C -0,6 C 74 % 1011,0 hPa 0,0 l/m 0 min 0 min 0 W/m 3,2 km/h (1 Bft) 97,83 %
14.03.2023 22:00 3,7 C 2,8 C -0,6 C 75 % 1011,1 hPa 0,0 l/m 0 min 0 min 0 W/m 6,4 km/h (2 Bft) 97,87 %
14.03.2023 22:02 3,7 C 2,2 C -0,6 C 75 % 1011,1 hPa 0,0 l/m 0 min 0 min 0 W/m 3,2 km/h (1 Bft) 95,74 %
14.03.2023 22:04 3,6 C 2,2 C -0,6 C 75 % 1011,2 hPa 0,0 l/m 0 min 0 min 0 W/m 3,2 km/h (1 Bft) 97,87 %
14.03.2023 22:06 3,6 C 2,2 C -0,6 C 75 % 1011,1 hPa 0,0 l/m 0 min 0 min 0 W/m 9,7 km/h (2 Bft) 97,87 %
14.03.2023 22:08 3,5 C 2,2 C -0,6 C 76 % 1011,1 hPa 0,0 l/m 0 min 0 min 0 W/m 3,2 km/h (1 Bft) 97,87 %
14.03.2023 22:10 3,4 C 2,2 C -0,6 C 76 % 1011,1 hPa 0,0 l/m 0 min 0 min 0 W/m 3,2 km/h (1 Bft) 97,87 %
14.03.2023 22:12 3,4 C 2,2 C -0,6 C 76 % 1011,1 hPa 0,0 l/m 0 min 0 min 0 W/m 9,7 km/h (2 Bft) 95,65 %
14.03.2023 22:14 3,4 C 2,2 C -0,6 C 76 % 1011,2 hPa 0,0 l/m 0 min 0 min 0 W/m 6,4 km/h (2 Bft) 91,49 %
14.03.2023 22:16 3,3 C 2,2 C -0,6 C 77 % 1011,2 hPa 0,0 l/m 0 min 0 min 0 W/m 6,4 km/h (2 Bft) 97,87 %
14.03.2023 22:18 3,3 C 2,2 C -0,6 C 77 % 1011,2 hPa 0,0 l/m 0 min 0 min 0 W/m 6,4 km/h (2 Bft) 91,49 %
14.03.2023 22:20 3,3 C 2,2 C -0,6 C 77 % 1011,2 hPa 0,0 l/m 0 min 0 min 0 W/m 12,9 km/h (3 Bft) 98,00 %
14.03.2023 22:22 3,3 C 2,2 C -0,6 C 77 % 1011,2 hPa 0,0 l/m 0 min 0 min 0 W/m 6,4 km/h (2 Bft) 97,87 %
14.03.2023 22:24 3,2 C 2,2 C -0,6 C 77 % 1011,2 hPa 0,0 l/m 0 min 0 min 0 W/m 12,9 km/h (3 Bft) 95,65 %
14.03.2023 22:26 3,2 C 2,2 C -0,6 C 77 % 1011,2 hPa 0,0 l/m 0 min 0 min 0 W/m 9,7 km/h (2 Bft) 95,74 %
14.03.2023 22:28 3,2 C 2,2 C -0,6 C 77 % 1011,3 hPa 0,0 l/m 0 min 0 min 0 W/m 6,4 km/h (2 Bft) 97,87 %
14.03.2023 22:30 3,2 C 2,2 C -0,6 C 77 % 1011,3 hPa 0,0 l/m 0 min 0 min 0 W/m 9,7 km/h (2 Bft) 97,87 %
14.03.2023 22:32 3,1 C 2,2 C -0,6 C 77 % 1011,3 hPa 0,0 l/m 0 min 0 min 0 W/m 6,4 km/h (2 Bft) 95,74 %
14.03.2023 22:34 3,1 C 2,2 C -0,6 C 78 % 1011,3 hPa 0,0 l/m 0 min 0 min 0 W/m 6,4 km/h (2 Bft) 97,87 %
14.03.2023 22:36 3,1 C 2,2 C -0,6 C 78 % 1011,3 hPa 0,0 l/m 0 min 0 min 0 W/m 6,4 km/h (2 Bft) 97,83 %
14.03.2023 22:38 3,1 C 2,2 C -0,6 C 78 % 1011,3 hPa 0,0 l/m 0 min 0 min 0 W/m 9,7 km/h (2 Bft) 95,74 %
14.03.2023 22:40 3,1 C 2,2 C -0,6 C 78 % 1011,3 hPa 0,0 l/m 0 min 0 min 0 W/m 6,4 km/h (2 Bft) 97,87 %
14.03.2023 22:42 3,1 C 2,2 C -0,6 C 78 % 1011,3 hPa 0,0 l/m 0 min 0 min 0 W/m 6,4 km/h (2 Bft) 100,00 %
14.03.2023 22:44 3,0 C 2,2 C -1,1 C 78 % 1011,4 hPa 0,0 l/m 0 min 0 min 0 W/m 6,4 km/h (2 Bft) 100,00 %
14.03.2023 22:46 3,0 C 2,2 C -1,1 C 78 % 1011,4 hPa 0,0 l/m 0 min 0 min 0 W/m 6,4 km/h (2 Bft) 100,00 %
14.03.2023 22:48 3,0 C 2,2 C -1,1 C 78 % 1011,4 hPa 0,0 l/m 0 min 0 min 0 W/m 6,4 km/h (2 Bft) 100,00 %
14.03.2023 22:50 2,9 C 2,2 C -1,1 C 78 % 1011,4 hPa 0,0 l/m 0 min 0 min 0 W/m 3,2 km/h (1 Bft) 100,00 %
14.03.2023 22:52 2,9 C 2,2 C -1,1 C 78 % 1011,4 hPa 0,0 l/m 0 min 0 min 0 W/m 6,4 km/h (2 Bft) 97,83 %
14.03.2023 22:54 2,9 C 2,2 C -1,1 C 79 % 1011,4 hPa 0,0 l/m 0 min 0 min 0 W/m 3,2 km/h (1 Bft) 95,70 %
14.03.2023 22:56 2,9 C 2,2 C -1,1 C 79 % 1011,4 hPa 0,0 l/m 0 min 0 min 0 W/m 6,4 km/h (2 Bft) 100,00 %
14.03.2023 22:58 2,9 C 1,7 C -1,1 C 79 % 1011,5 hPa 0,0 l/m 0 min 0 min 0 W/m 6,4 km/h (2 Bft) 93,62 %
14.03.2023 23:00 2,8 C 1,7 C -1,1 C 79 % 1011,4 hPa 0,0 l/m 0 min 0 min 0 W/m 9,7 km/h (2 Bft) 97,87 %
14.03.2023 23:02 2,8 C 1,7 C -1,1 C 79 % 1011,5 hPa 0,0 l/m 0 min 0 min 0 W/m 6,4 km/h (2 Bft) 97,87 %
14.03.2023 23:04 2,8 C 1,7 C -1,1 C 79 % 1011,5 hPa 0,0 l/m 0 min 0 min 0 W/m 6,4 km/h (2 Bft) 97,83 %
14.03.2023 23:06 2,8 C 1,7 C -1,1 C 79 % 1011,5 hPa 0,0 l/m 0 min 0 min 0 W/m 6,4 km/h (2 Bft) 98,31 %
14.03.2023 23:08 2,8 C 1,7 C -1,1 C 79 % 1011,4 hPa 0,0 l/m 0 min 0 min 0 W/m 9,7 km/h (2 Bft) 97,14 %
14.03.2023 23:10 2,7 C 1,7 C -1,1 C 80 % 1011,5 hPa 0,0 l/m 0 min 0 min 0 W/m 6,4 km/h (2 Bft) 95,74 %
14.03.2023 23:12 2,7 C 1,7 C -1,1 C 79 % 1011,5 hPa 0,0 l/m 0 min 0 min 0 W/m 6,4 km/h (2 Bft) 97,87 %
14.03.2023 23:14 2,7 C 1,7 C -1,1 C 80 % 1011,5 hPa 0,0 l/m 0 min 0 min 0 W/m 6,4 km/h (2 Bft) 95,74 %
14.03.2023 23:16 2,7 C 1,7 C -1,1 C 80 % 1011,5 hPa 0,0 l/m 0 min 0 min 0 W/m 6,4 km/h (2 Bft) 95,74 %
14.03.2023 23:18 2,7 C 1,7 C -1,1 C 80 % 1011,5 hPa 0,0 l/m 0 min 0 min 0 W/m 12,9 km/h (3 Bft) 95,74 %
14.03.2023 23:20 2,7 C 1,7 C -1,1 C 80 % 1011,5 hPa 0,0 l/m 0 min 0 min 0 W/m 6,4 km/h (2 Bft) 98,15 %
14.03.2023 23:22 2,7 C 1,7 C -1,1 C 80 % 1011,5 hPa 0,0 l/m 0 min 0 min 0 W/m 6,4 km/h (2 Bft) 97,87 %
14.03.2023 23:24 2,7 C 1,7 C -1,1 C 80 % 1011,5 hPa 0,0 l/m 0 min 0 min 0 W/m 6,4 km/h (2 Bft) 97,87 %
14.03.2023 23:26 2,7 C 1,7 C -1,1 C 80 % 1011,5 hPa 0,0 l/m 0 min 0 min 0 W/m 9,7 km/h (2 Bft) 97,87 %
14.03.2023 23:28 2,6 C 1,7 C -1,1 C 80 % 1011,5 hPa 0,0 l/m 0 min 0 min 0 W/m 12,9 km/h (3 Bft) 93,62 %
14.03.2023 23:30 2,6 C 1,7 C -1,1 C 80 % 1011,6 hPa 0,0 l/m 0 min 0 min 0 W/m 9,7 km/h (2 Bft) 97,92 %
14.03.2023 23:32 2,7 C 1,7 C -1,1 C 80 % 1011,6 hPa 0,0 l/m 0 min 0 min 0 W/m 6,4 km/h (2 Bft) 97,83 %
14.03.2023 23:34 2,7 C 2,2 C -1,1 C 80 % 1011,6 hPa 0,0 l/m 0 min 0 min 0 W/m 12,9 km/h (3 Bft) 95,74 %
14.03.2023 23:36 2,7 C 2,2 C -1,1 C 81 % 1011,7 hPa 0,0 l/m 0 min 0 min 0 W/m 12,9 km/h (3 Bft) 95,74 %
14.03.2023 23:38 2,7 C 2,2 C -1,1 C 81 % 1011,8 hPa 0,0 l/m 0 min 0 min 0 W/m 12,9 km/h (3 Bft) 97,87 %
14.03.2023 23:40 2,8 C 2,2 C -0,6 C 81 % 1011,7 hPa 0,0 l/m 0 min 0 min 0 W/m 19,3 km/h (3 Bft) 95,83 %
14.03.2023 23:42 2,8 C 2,2 C -0,6 C 81 % 1011,8 hPa 0,0 l/m 0 min 0 min 0 W/m 16,1 km/h (3 Bft) 93,62 %
14.03.2023 23:44 2,9 C 2,2 C -0,6 C 81 % 1011,8 hPa 0,0 l/m 0 min 0 min 0 W/m 16,1 km/h (3 Bft) 97,87 %
14.03.2023 23:46 2,9 C 2,2 C -0,6 C 80 % 1011,8 hPa 0,0 l/m 0 min 0 min 0 W/m 16,1 km/h (3 Bft) 93,48 %
14.03.2023 23:48 2,9 C 2,2 C -0,6 C 80 % 1011,8 hPa 0,0 l/m 0 min 0 min 0 W/m 16,1 km/h (3 Bft) 97,87 %
14.03.2023 23:50 2,9 C 2,2 C -0,6 C 80 % 1011,8 hPa 0,0 l/m 0 min 0 min 0 W/m 12,9 km/h (3 Bft) 95,74 %
14.03.2023 23:52 2,9 C 2,2 C -1,1 C 80 % 1011,8 hPa 0,0 l/m 0 min 0 min 0 W/m 16,1 km/h (3 Bft) 93,62 %
14.03.2023 23:54 3,0 C 2,2 C -0,6 C 80 % 1011,8 hPa 0,0 l/m 0 min 0 min 0 W/m 16,1 km/h (3 Bft) 91,49 %
14.03.2023 23:56 3,0 C 2,2 C -0,6 C 80 % 1011,8 hPa 0,0 l/m 0 min 0 min 0 W/m 12,9 km/h (3 Bft) 93,62 %
14.03.2023 23:58 3,1 C 2,2 C -0,6 C 80 % 1011,9 hPa 0,0 l/m 0 min 0 min 0 W/m 19,3 km/h (3 Bft) 95,74 %
_ Min-Zeit 23:28 22:58 22:44 17:08 06:42 - - - - 05:58 08:14
Minimum _ 2,6 C 1,7 C -1,1 C 62 % 989,7 hPa - - - - 0,0 km/h (0 Bft) 10,64 %
_ Max-Zeit 01:12 14:58 00:42 06:32 23:58 10:04 07:32 02:14 14:58 01:18 00:12
Maximum _ 11,8 C 12,2 C 7,2 C 97 % 1011,9 hPa 0,4 l/m 2 min 4 min 657 W/m 61,2 km/h
S-SO (7 Bft)
100,00 %
Durchschnitt _ 7,6 C 7,0 C 3,5 C 85 % 998,5 hPa #8,6 l/m #1:44 h #6:16 h 121 W/m 20,9 km/h (4 Bft) 96,14 %
© 2023 W. Hausmann